<?xml version="1.0" encoding="utf-8"?>
<gpx xmlns:xsi="http://www.w3.org/2001/XMLSchema-instance" xmlns:xsd="http://www.w3.org/2001/XMLSchema" version="1.1" creator="Shapelink.com" xmlns="http://www.topografix.com/GPX/1/1" xmlns:gpxtpx="http://www.garmin.com/xmlschemas/TrackPointExtension/v1">
  <metadata>
    <name>Promenad 9.60 km, 2018-07-04</name>
    <desc></desc>
    <author><name>Veronica Dahlgren</name></author> 
    <time>1970-01-01T01:00:00Z</time>
  </metadata>
  <trk>
    <name>Promenad 9.60 km, 2018-07-04</name>
    <trkseg>
      <trkpt lat="59.000002" lon="16.006589">
        <ele>65.2857</ele>
        <time>1970-01-01T01:00:00Z</time>
      </trkpt>
      <trkpt lat="58.999921" lon="16.006609">
        <ele>65.625</ele>
        <time>1970-01-01T01:00:00Z</time>
      </trkpt>
      <trkpt lat="58.999861" lon="16.006498">
        <ele>66</ele>
        <time>1970-01-01T01:00:00Z</time>
      </trkpt>
      <trkpt lat="58.999819" lon="16.006339">
        <ele>66.5</ele>
        <time>1970-01-01T01:00:00Z</time>
      </trkpt>
      <trkpt lat="58.999739" lon="16.006236">
        <ele>66.9091</ele>
        <time>1970-01-01T01:00:00Z</time>
      </trkpt>
      <trkpt lat="58.999661" lon="16.006167">
        <ele>67.5455</ele>
        <time>1970-01-01T01:00:00Z</time>
      </trkpt>
      <trkpt lat="58.999588" lon="16.006084">
        <ele>68.0909</ele>
        <time>1970-01-01T01:00:00Z</time>
      </trkpt>
      <trkpt lat="58.999515" lon="16.006012">
        <ele>68.6364</ele>
        <time>1970-01-01T01:00:00Z</time>
      </trkpt>
      <trkpt lat="58.999423" lon="16.006015">
        <ele>69.2727</ele>
        <time>1970-01-01T01:00:00Z</time>
      </trkpt>
      <trkpt lat="58.999402" lon="16.006175">
        <ele>70</ele>
        <time>1970-01-01T01:00:00Z</time>
      </trkpt>
      <trkpt lat="58.999372" lon="16.006334">
        <ele>70.6364</ele>
        <time>1970-01-01T01:00:00Z</time>
      </trkpt>
      <trkpt lat="58.999318" lon="16.006484">
        <ele>71.0909</ele>
        <time>1970-01-01T01:00:00Z</time>
      </trkpt>
      <trkpt lat="58.999287" lon="16.006662">
        <ele>71.4545</ele>
        <time>1970-01-01T01:00:00Z</time>
      </trkpt>
      <trkpt lat="58.999246" lon="16.006812">
        <ele>71.8182</ele>
        <time>1970-01-01T01:00:00Z</time>
      </trkpt>
      <trkpt lat="58.999182" lon="16.006933">
        <ele>72</ele>
        <time>1970-01-01T01:00:00Z</time>
      </trkpt>
      <trkpt lat="58.999155" lon="16.007084">
        <ele>72.1818</ele>
        <time>1970-01-01T01:00:00Z</time>
      </trkpt>
      <trkpt lat="58.999147" lon="16.007249">
        <ele>72.3636</ele>
        <time>1970-01-01T01:00:00Z</time>
      </trkpt>
      <trkpt lat="58.999111" lon="16.00739">
        <ele>72.5455</ele>
        <time>1970-01-01T01:00:00Z</time>
      </trkpt>
      <trkpt lat="58.999061" lon="16.007515">
        <ele>72.6364</ele>
        <time>1970-01-01T01:00:00Z</time>
      </trkpt>
      <trkpt lat="58.998994" lon="16.007629">
        <ele>72.6364</ele>
        <time>1970-01-01T01:00:00Z</time>
      </trkpt>
      <trkpt lat="58.998915" lon="16.00774">
        <ele>72.4545</ele>
        <time>1970-01-01T01:00:00Z</time>
      </trkpt>
      <trkpt lat="58.998839" lon="16.007806">
        <ele>72.1818</ele>
        <time>1970-01-01T01:00:00Z</time>
      </trkpt>
      <trkpt lat="58.998756" lon="16.007886">
        <ele>72</ele>
        <time>1970-01-01T01:00:00Z</time>
      </trkpt>
      <trkpt lat="58.998677" lon="16.007951">
        <ele>71.7273</ele>
        <time>1970-01-01T01:00:00Z</time>
      </trkpt>
      <trkpt lat="58.998604" lon="16.008058">
        <ele>71.3636</ele>
        <time>1970-01-01T01:00:00Z</time>
      </trkpt>
      <trkpt lat="58.998537" lon="16.008164">
        <ele>71</ele>
        <time>1970-01-01T01:00:00Z</time>
      </trkpt>
      <trkpt lat="58.998482" lon="16.008281">
        <ele>70.6364</ele>
        <time>1970-01-01T01:00:00Z</time>
      </trkpt>
      <trkpt lat="58.998407" lon="16.008393">
        <ele>70.1818</ele>
        <time>1970-01-01T01:00:00Z</time>
      </trkpt>
      <trkpt lat="58.998332" lon="16.008476">
        <ele>69.7273</ele>
        <time>1970-01-01T01:00:00Z</time>
      </trkpt>
      <trkpt lat="58.998257" lon="16.008587">
        <ele>69.3636</ele>
        <time>1970-01-01T01:00:00Z</time>
      </trkpt>
      <trkpt lat="58.998219" lon="16.008734">
        <ele>68.9091</ele>
        <time>1970-01-01T01:00:00Z</time>
      </trkpt>
      <trkpt lat="58.998161" lon="16.008853">
        <ele>68.5455</ele>
        <time>1970-01-01T01:00:00Z</time>
      </trkpt>
      <trkpt lat="58.998088" lon="16.008928">
        <ele>68.2727</ele>
        <time>1970-01-01T01:00:00Z</time>
      </trkpt>
      <trkpt lat="58.998002" lon="16.008968">
        <ele>67.9091</ele>
        <time>1970-01-01T01:00:00Z</time>
      </trkpt>
      <trkpt lat="58.997917" lon="16.009032">
        <ele>67.6364</ele>
        <time>1970-01-01T01:00:00Z</time>
      </trkpt>
      <trkpt lat="58.997834" lon="16.009125">
        <ele>67.3636</ele>
        <time>1970-01-01T01:00:00Z</time>
      </trkpt>
      <trkpt lat="58.997757" lon="16.009185">
        <ele>67.0909</ele>
        <time>1970-01-01T01:00:00Z</time>
      </trkpt>
      <trkpt lat="58.997667" lon="16.009228">
        <ele>66.8182</ele>
        <time>1970-01-01T01:00:00Z</time>
      </trkpt>
      <trkpt lat="58.997584" lon="16.009267">
        <ele>66.6364</ele>
        <time>1970-01-01T01:00:00Z</time>
      </trkpt>
      <trkpt lat="58.997506" lon="16.009354">
        <ele>66.4545</ele>
        <time>1970-01-01T01:00:00Z</time>
      </trkpt>
      <trkpt lat="58.997427" lon="16.009455">
        <ele>66.2727</ele>
        <time>1970-01-01T01:00:00Z</time>
      </trkpt>
      <trkpt lat="58.997359" lon="16.009558">
        <ele>66.1818</ele>
        <time>1970-01-01T01:00:00Z</time>
      </trkpt>
      <trkpt lat="58.997296" lon="16.009663">
        <ele>66.0909</ele>
        <time>1970-01-01T01:00:00Z</time>
      </trkpt>
      <trkpt lat="58.997246" lon="16.009797">
        <ele>66</ele>
        <time>1970-01-01T01:00:00Z</time>
      </trkpt>
      <trkpt lat="58.997166" lon="16.009906">
        <ele>66.0909</ele>
        <time>1970-01-01T01:00:00Z</time>
      </trkpt>
      <trkpt lat="58.997076" lon="16.009987">
        <ele>66.1818</ele>
        <time>1970-01-01T01:00:00Z</time>
      </trkpt>
      <trkpt lat="58.996995" lon="16.010044">
        <ele>66.2727</ele>
        <time>1970-01-01T01:00:00Z</time>
      </trkpt>
      <trkpt lat="58.99692" lon="16.010108">
        <ele>66.4545</ele>
        <time>1970-01-01T01:00:00Z</time>
      </trkpt>
      <trkpt lat="58.996838" lon="16.010186">
        <ele>66.7273</ele>
        <time>1970-01-01T01:00:00Z</time>
      </trkpt>
      <trkpt lat="58.996767" lon="16.010263">
        <ele>67</ele>
        <time>1970-01-01T01:00:00Z</time>
      </trkpt>
      <trkpt lat="58.996691" lon="16.01036">
        <ele>67.2727</ele>
        <time>1970-01-01T01:00:00Z</time>
      </trkpt>
      <trkpt lat="58.996634" lon="16.010473">
        <ele>67.5455</ele>
        <time>1970-01-01T01:00:00Z</time>
      </trkpt>
      <trkpt lat="58.996565" lon="16.010575">
        <ele>67.8182</ele>
        <time>1970-01-01T01:00:00Z</time>
      </trkpt>
      <trkpt lat="58.996487" lon="16.010531">
        <ele>68.1818</ele>
        <time>1970-01-01T01:00:00Z</time>
      </trkpt>
      <trkpt lat="58.996427" lon="16.010411">
        <ele>68.6364</ele>
        <time>1970-01-01T01:00:00Z</time>
      </trkpt>
      <trkpt lat="58.996393" lon="16.010265">
        <ele>69</ele>
        <time>1970-01-01T01:00:00Z</time>
      </trkpt>
      <trkpt lat="58.996338" lon="16.010116">
        <ele>69.4545</ele>
        <time>1970-01-01T01:00:00Z</time>
      </trkpt>
      <trkpt lat="58.996283" lon="16.009972">
        <ele>69.9091</ele>
        <time>1970-01-01T01:00:00Z</time>
      </trkpt>
      <trkpt lat="58.996226" lon="16.009859">
        <ele>70.2727</ele>
        <time>1970-01-01T01:00:00Z</time>
      </trkpt>
      <trkpt lat="58.996158" lon="16.009742">
        <ele>70.6364</ele>
        <time>1970-01-01T01:00:00Z</time>
      </trkpt>
      <trkpt lat="58.996099" lon="16.009598">
        <ele>71</ele>
        <time>1970-01-01T01:00:00Z</time>
      </trkpt>
      <trkpt lat="58.996041" lon="16.009457">
        <ele>71.4545</ele>
        <time>1970-01-01T01:00:00Z</time>
      </trkpt>
      <trkpt lat="58.995984" lon="16.009318">
        <ele>72</ele>
        <time>1970-01-01T01:00:00Z</time>
      </trkpt>
      <trkpt lat="58.995913" lon="16.009224">
        <ele>72.5455</ele>
        <time>1970-01-01T01:00:00Z</time>
      </trkpt>
      <trkpt lat="58.995832" lon="16.009123">
        <ele>73</ele>
        <time>1970-01-01T01:00:00Z</time>
      </trkpt>
      <trkpt lat="58.995751" lon="16.009058">
        <ele>73.3636</ele>
        <time>1970-01-01T01:00:00Z</time>
      </trkpt>
      <trkpt lat="58.995666" lon="16.009028">
        <ele>73.7273</ele>
        <time>1970-01-01T01:00:00Z</time>
      </trkpt>
      <trkpt lat="58.995584" lon="16.00901">
        <ele>73.9091</ele>
        <time>1970-01-01T01:00:00Z</time>
      </trkpt>
      <trkpt lat="58.995489" lon="16.008978">
        <ele>74.0909</ele>
        <time>1970-01-01T01:00:00Z</time>
      </trkpt>
      <trkpt lat="58.995408" lon="16.008937">
        <ele>74.1818</ele>
        <time>1970-01-01T01:00:00Z</time>
      </trkpt>
      <trkpt lat="58.995348" lon="16.008807">
        <ele>74.1818</ele>
        <time>1970-01-01T01:00:00Z</time>
      </trkpt>
      <trkpt lat="58.995273" lon="16.008734">
        <ele>74.0909</ele>
        <time>1970-01-01T01:00:00Z</time>
      </trkpt>
      <trkpt lat="58.995222" lon="16.008585">
        <ele>73.8182</ele>
        <time>1970-01-01T01:00:00Z</time>
      </trkpt>
      <trkpt lat="58.995187" lon="16.008438">
        <ele>73.4545</ele>
        <time>1970-01-01T01:00:00Z</time>
      </trkpt>
      <trkpt lat="58.995151" lon="16.008282">
        <ele>73.0909</ele>
        <time>1970-01-01T01:00:00Z</time>
      </trkpt>
      <trkpt lat="58.995113" lon="16.008121">
        <ele>72.6364</ele>
        <time>1970-01-01T01:00:00Z</time>
      </trkpt>
      <trkpt lat="58.99508" lon="16.007961">
        <ele>72.1818</ele>
        <time>1970-01-01T01:00:00Z</time>
      </trkpt>
      <trkpt lat="58.994995" lon="16.007894">
        <ele>71.7273</ele>
        <time>1970-01-01T01:00:00Z</time>
      </trkpt>
      <trkpt lat="58.994906" lon="16.007859">
        <ele>71.3636</ele>
        <time>1970-01-01T01:00:00Z</time>
      </trkpt>
      <trkpt lat="58.994812" lon="16.007832">
        <ele>71.0909</ele>
        <time>1970-01-01T01:00:00Z</time>
      </trkpt>
      <trkpt lat="58.994725" lon="16.00783">
        <ele>70.9091</ele>
        <time>1970-01-01T01:00:00Z</time>
      </trkpt>
      <trkpt lat="58.994636" lon="16.007852">
        <ele>70.8182</ele>
        <time>1970-01-01T01:00:00Z</time>
      </trkpt>
      <trkpt lat="58.994548" lon="16.007855">
        <ele>70.8182</ele>
        <time>1970-01-01T01:00:00Z</time>
      </trkpt>
      <trkpt lat="58.994459" lon="16.00786">
        <ele>71</ele>
        <time>1970-01-01T01:00:00Z</time>
      </trkpt>
      <trkpt lat="58.994379" lon="16.007883">
        <ele>71.2727</ele>
        <time>1970-01-01T01:00:00Z</time>
      </trkpt>
      <trkpt lat="58.994298" lon="16.007863">
        <ele>71.6364</ele>
        <time>1970-01-01T01:00:00Z</time>
      </trkpt>
      <trkpt lat="58.994225" lon="16.007757">
        <ele>72.1818</ele>
        <time>1970-01-01T01:00:00Z</time>
      </trkpt>
      <trkpt lat="58.994192" lon="16.007588">
        <ele>72.8182</ele>
        <time>1970-01-01T01:00:00Z</time>
      </trkpt>
      <trkpt lat="58.994133" lon="16.007467">
        <ele>73.5455</ele>
        <time>1970-01-01T01:00:00Z</time>
      </trkpt>
      <trkpt lat="58.994041" lon="16.007404">
        <ele>74.2727</ele>
        <time>1970-01-01T01:00:00Z</time>
      </trkpt>
      <trkpt lat="58.99398" lon="16.007287">
        <ele>75</ele>
        <time>1970-01-01T01:00:00Z</time>
      </trkpt>
      <trkpt lat="58.993918" lon="16.007184">
        <ele>75.7273</ele>
        <time>1970-01-01T01:00:00Z</time>
      </trkpt>
      <trkpt lat="58.993849" lon="16.007082">
        <ele>76.3636</ele>
        <time>1970-01-01T01:00:00Z</time>
      </trkpt>
      <trkpt lat="58.993783" lon="16.006958">
        <ele>77</ele>
        <time>1970-01-01T01:00:00Z</time>
      </trkpt>
      <trkpt lat="58.993747" lon="16.006798">
        <ele>77.4545</ele>
        <time>1970-01-01T01:00:00Z</time>
      </trkpt>
      <trkpt lat="58.993688" lon="16.006642">
        <ele>77.8182</ele>
        <time>1970-01-01T01:00:00Z</time>
      </trkpt>
      <trkpt lat="58.99366" lon="16.006494">
        <ele>78.0909</ele>
        <time>1970-01-01T01:00:00Z</time>
      </trkpt>
      <trkpt lat="58.993658" lon="16.006316">
        <ele>78.2727</ele>
        <time>1970-01-01T01:00:00Z</time>
      </trkpt>
      <trkpt lat="58.993652" lon="16.006142">
        <ele>78.4545</ele>
        <time>1970-01-01T01:00:00Z</time>
      </trkpt>
      <trkpt lat="58.993653" lon="16.005961">
        <ele>78.5455</ele>
        <time>1970-01-01T01:00:00Z</time>
      </trkpt>
      <trkpt lat="58.993635" lon="16.00579">
        <ele>78.7273</ele>
        <time>1970-01-01T01:00:00Z</time>
      </trkpt>
      <trkpt lat="58.993614" lon="16.005623">
        <ele>78.9091</ele>
        <time>1970-01-01T01:00:00Z</time>
      </trkpt>
      <trkpt lat="58.993585" lon="16.005466">
        <ele>79</ele>
        <time>1970-01-01T01:00:00Z</time>
      </trkpt>
      <trkpt lat="58.993524" lon="16.005337">
        <ele>79.0909</ele>
        <time>1970-01-01T01:00:00Z</time>
      </trkpt>
      <trkpt lat="58.99348" lon="16.005185">
        <ele>79.0909</ele>
        <time>1970-01-01T01:00:00Z</time>
      </trkpt>
      <trkpt lat="58.993424" lon="16.005063">
        <ele>79.0909</ele>
        <time>1970-01-01T01:00:00Z</time>
      </trkpt>
      <trkpt lat="58.993372" lon="16.004916">
        <ele>79.1818</ele>
        <time>1970-01-01T01:00:00Z</time>
      </trkpt>
      <trkpt lat="58.993327" lon="16.004765">
        <ele>79.2727</ele>
        <time>1970-01-01T01:00:00Z</time>
      </trkpt>
      <trkpt lat="58.993316" lon="16.004589">
        <ele>79.2727</ele>
        <time>1970-01-01T01:00:00Z</time>
      </trkpt>
      <trkpt lat="58.993289" lon="16.004416">
        <ele>79.0909</ele>
        <time>1970-01-01T01:00:00Z</time>
      </trkpt>
      <trkpt lat="58.993276" lon="16.004232">
        <ele>78.8182</ele>
        <time>1970-01-01T01:00:00Z</time>
      </trkpt>
      <trkpt lat="58.993226" lon="16.004077">
        <ele>78.4545</ele>
        <time>1970-01-01T01:00:00Z</time>
      </trkpt>
      <trkpt lat="58.99318" lon="16.003943">
        <ele>77.9091</ele>
        <time>1970-01-01T01:00:00Z</time>
      </trkpt>
      <trkpt lat="58.993163" lon="16.003785">
        <ele>77.3636</ele>
        <time>1970-01-01T01:00:00Z</time>
      </trkpt>
      <trkpt lat="58.993136" lon="16.00362">
        <ele>76.8182</ele>
        <time>1970-01-01T01:00:00Z</time>
      </trkpt>
      <trkpt lat="58.993114" lon="16.003455">
        <ele>76.3636</ele>
        <time>1970-01-01T01:00:00Z</time>
      </trkpt>
      <trkpt lat="58.993084" lon="16.003295">
        <ele>76.0909</ele>
        <time>1970-01-01T01:00:00Z</time>
      </trkpt>
      <trkpt lat="58.993092" lon="16.003136">
        <ele>75.8182</ele>
        <time>1970-01-01T01:00:00Z</time>
      </trkpt>
      <trkpt lat="58.993104" lon="16.002965">
        <ele>75.5455</ele>
        <time>1970-01-01T01:00:00Z</time>
      </trkpt>
      <trkpt lat="58.993088" lon="16.002788">
        <ele>75.4545</ele>
        <time>1970-01-01T01:00:00Z</time>
      </trkpt>
      <trkpt lat="58.99307" lon="16.002632">
        <ele>75.5455</ele>
        <time>1970-01-01T01:00:00Z</time>
      </trkpt>
      <trkpt lat="58.993073" lon="16.002473">
        <ele>75.8182</ele>
        <time>1970-01-01T01:00:00Z</time>
      </trkpt>
      <trkpt lat="58.993033" lon="16.002312">
        <ele>76.0909</ele>
        <time>1970-01-01T01:00:00Z</time>
      </trkpt>
      <trkpt lat="58.992957" lon="16.002215">
        <ele>76.5455</ele>
        <time>1970-01-01T01:00:00Z</time>
      </trkpt>
      <trkpt lat="58.992895" lon="16.00209">
        <ele>77.0909</ele>
        <time>1970-01-01T01:00:00Z</time>
      </trkpt>
      <trkpt lat="58.992851" lon="16.001932">
        <ele>77.7273</ele>
        <time>1970-01-01T01:00:00Z</time>
      </trkpt>
      <trkpt lat="58.992804" lon="16.001785">
        <ele>78.3636</ele>
        <time>1970-01-01T01:00:00Z</time>
      </trkpt>
      <trkpt lat="58.992755" lon="16.001647">
        <ele>79</ele>
        <time>1970-01-01T01:00:00Z</time>
      </trkpt>
      <trkpt lat="58.992672" lon="16.001604">
        <ele>79.5455</ele>
        <time>1970-01-01T01:00:00Z</time>
      </trkpt>
      <trkpt lat="58.992595" lon="16.001541">
        <ele>80.0909</ele>
        <time>1970-01-01T01:00:00Z</time>
      </trkpt>
      <trkpt lat="58.992508" lon="16.001508">
        <ele>80.5455</ele>
        <time>1970-01-01T01:00:00Z</time>
      </trkpt>
      <trkpt lat="58.992429" lon="16.00147">
        <ele>80.8182</ele>
        <time>1970-01-01T01:00:00Z</time>
      </trkpt>
      <trkpt lat="58.992348" lon="16.001399">
        <ele>81</ele>
        <time>1970-01-01T01:00:00Z</time>
      </trkpt>
      <trkpt lat="58.992278" lon="16.001297">
        <ele>81.1818</ele>
        <time>1970-01-01T01:00:00Z</time>
      </trkpt>
      <trkpt lat="58.992183" lon="16.001262">
        <ele>81.1818</ele>
        <time>1970-01-01T01:00:00Z</time>
      </trkpt>
      <trkpt lat="58.992092" lon="16.001218">
        <ele>81.1818</ele>
        <time>1970-01-01T01:00:00Z</time>
      </trkpt>
      <trkpt lat="58.992017" lon="16.001144">
        <ele>81</ele>
        <time>1970-01-01T01:00:00Z</time>
      </trkpt>
      <trkpt lat="58.991927" lon="16.001125">
        <ele>80.8182</ele>
        <time>1970-01-01T01:00:00Z</time>
      </trkpt>
      <trkpt lat="58.99184" lon="16.001127">
        <ele>80.5455</ele>
        <time>1970-01-01T01:00:00Z</time>
      </trkpt>
      <trkpt lat="58.991758" lon="16.001195">
        <ele>80.1818</ele>
        <time>1970-01-01T01:00:00Z</time>
      </trkpt>
      <trkpt lat="58.991674" lon="16.001204">
        <ele>79.8182</ele>
        <time>1970-01-01T01:00:00Z</time>
      </trkpt>
      <trkpt lat="58.99159" lon="16.001241">
        <ele>79.4545</ele>
        <time>1970-01-01T01:00:00Z</time>
      </trkpt>
      <trkpt lat="58.991511" lon="16.001285">
        <ele>79.1818</ele>
        <time>1970-01-01T01:00:00Z</time>
      </trkpt>
      <trkpt lat="58.991423" lon="16.001263">
        <ele>78.9091</ele>
        <time>1970-01-01T01:00:00Z</time>
      </trkpt>
      <trkpt lat="58.991341" lon="16.001224">
        <ele>78.7273</ele>
        <time>1970-01-01T01:00:00Z</time>
      </trkpt>
      <trkpt lat="58.991267" lon="16.001131">
        <ele>78.6364</ele>
        <time>1970-01-01T01:00:00Z</time>
      </trkpt>
      <trkpt lat="58.991192" lon="16.001058">
        <ele>78.5455</ele>
        <time>1970-01-01T01:00:00Z</time>
      </trkpt>
      <trkpt lat="58.991107" lon="16.000994">
        <ele>78.5455</ele>
        <time>1970-01-01T01:00:00Z</time>
      </trkpt>
      <trkpt lat="58.991009" lon="16.000934">
        <ele>78.5455</ele>
        <time>1970-01-01T01:00:00Z</time>
      </trkpt>
      <trkpt lat="58.990929" lon="16.000899">
        <ele>78.5455</ele>
        <time>1970-01-01T01:00:00Z</time>
      </trkpt>
      <trkpt lat="58.990841" lon="16.000884">
        <ele>78.6364</ele>
        <time>1970-01-01T01:00:00Z</time>
      </trkpt>
      <trkpt lat="58.990753" lon="16.000847">
        <ele>78.7273</ele>
        <time>1970-01-01T01:00:00Z</time>
      </trkpt>
      <trkpt lat="58.990671" lon="16.000875">
        <ele>78.8182</ele>
        <time>1970-01-01T01:00:00Z</time>
      </trkpt>
      <trkpt lat="58.990603" lon="16.000982">
        <ele>79</ele>
        <time>1970-01-01T01:00:00Z</time>
      </trkpt>
      <trkpt lat="58.990548" lon="16.001102">
        <ele>79.0909</ele>
        <time>1970-01-01T01:00:00Z</time>
      </trkpt>
      <trkpt lat="58.990477" lon="16.00125">
        <ele>79.0909</ele>
        <time>1970-01-01T01:00:00Z</time>
      </trkpt>
      <trkpt lat="58.990429" lon="16.001381">
        <ele>79.0909</ele>
        <time>1970-01-01T01:00:00Z</time>
      </trkpt>
      <trkpt lat="58.990372" lon="16.00151">
        <ele>79.0909</ele>
        <time>1970-01-01T01:00:00Z</time>
      </trkpt>
      <trkpt lat="58.990321" lon="16.001661">
        <ele>79.0909</ele>
        <time>1970-01-01T01:00:00Z</time>
      </trkpt>
      <trkpt lat="58.990272" lon="16.00181">
        <ele>79.0909</ele>
        <time>1970-01-01T01:00:00Z</time>
      </trkpt>
      <trkpt lat="58.990205" lon="16.001918">
        <ele>79</ele>
        <time>1970-01-01T01:00:00Z</time>
      </trkpt>
      <trkpt lat="58.990133" lon="16.002016">
        <ele>78.9091</ele>
        <time>1970-01-01T01:00:00Z</time>
      </trkpt>
      <trkpt lat="58.990058" lon="16.002129">
        <ele>78.9091</ele>
        <time>1970-01-01T01:00:00Z</time>
      </trkpt>
      <trkpt lat="58.989982" lon="16.002242">
        <ele>78.9091</ele>
        <time>1970-01-01T01:00:00Z</time>
      </trkpt>
      <trkpt lat="58.989909" lon="16.00236">
        <ele>78.7273</ele>
        <time>1970-01-01T01:00:00Z</time>
      </trkpt>
      <trkpt lat="58.989857" lon="16.002497">
        <ele>78.6364</ele>
        <time>1970-01-01T01:00:00Z</time>
      </trkpt>
      <trkpt lat="58.989789" lon="16.002592">
        <ele>78.5455</ele>
        <time>1970-01-01T01:00:00Z</time>
      </trkpt>
      <trkpt lat="58.989705" lon="16.002667">
        <ele>78.4545</ele>
        <time>1970-01-01T01:00:00Z</time>
      </trkpt>
      <trkpt lat="58.989626" lon="16.002749">
        <ele>78.3636</ele>
        <time>1970-01-01T01:00:00Z</time>
      </trkpt>
      <trkpt lat="58.989567" lon="16.002872">
        <ele>78.2727</ele>
        <time>1970-01-01T01:00:00Z</time>
      </trkpt>
      <trkpt lat="58.989532" lon="16.003027">
        <ele>78.0909</ele>
        <time>1970-01-01T01:00:00Z</time>
      </trkpt>
      <trkpt lat="58.989486" lon="16.003157">
        <ele>78</ele>
        <time>1970-01-01T01:00:00Z</time>
      </trkpt>
      <trkpt lat="58.989459" lon="16.00331">
        <ele>77.9091</ele>
        <time>1970-01-01T01:00:00Z</time>
      </trkpt>
      <trkpt lat="58.989415" lon="16.00345">
        <ele>77.6364</ele>
        <time>1970-01-01T01:00:00Z</time>
      </trkpt>
      <trkpt lat="58.989377" lon="16.003591">
        <ele>77.4545</ele>
        <time>1970-01-01T01:00:00Z</time>
      </trkpt>
      <trkpt lat="58.989336" lon="16.003753">
        <ele>77.3636</ele>
        <time>1970-01-01T01:00:00Z</time>
      </trkpt>
      <trkpt lat="58.989294" lon="16.003919">
        <ele>77.3636</ele>
        <time>1970-01-01T01:00:00Z</time>
      </trkpt>
      <trkpt lat="58.989242" lon="16.004043">
        <ele>77.4545</ele>
        <time>1970-01-01T01:00:00Z</time>
      </trkpt>
      <trkpt lat="58.989183" lon="16.004178">
        <ele>77.5455</ele>
        <time>1970-01-01T01:00:00Z</time>
      </trkpt>
      <trkpt lat="58.989109" lon="16.004274">
        <ele>77.7273</ele>
        <time>1970-01-01T01:00:00Z</time>
      </trkpt>
      <trkpt lat="58.989064" lon="16.004421">
        <ele>77.9091</ele>
        <time>1970-01-01T01:00:00Z</time>
      </trkpt>
      <trkpt lat="58.988997" lon="16.004539">
        <ele>78.1818</ele>
        <time>1970-01-01T01:00:00Z</time>
      </trkpt>
      <trkpt lat="58.98895" lon="16.004696">
        <ele>78.4545</ele>
        <time>1970-01-01T01:00:00Z</time>
      </trkpt>
      <trkpt lat="58.988877" lon="16.004775">
        <ele>78.7273</ele>
        <time>1970-01-01T01:00:00Z</time>
      </trkpt>
      <trkpt lat="58.988823" lon="16.004893">
        <ele>79.0909</ele>
        <time>1970-01-01T01:00:00Z</time>
      </trkpt>
      <trkpt lat="58.988758" lon="16.005022">
        <ele>79.3636</ele>
        <time>1970-01-01T01:00:00Z</time>
      </trkpt>
      <trkpt lat="58.988683" lon="16.005132">
        <ele>79.6364</ele>
        <time>1970-01-01T01:00:00Z</time>
      </trkpt>
      <trkpt lat="58.988618" lon="16.005231">
        <ele>79.8182</ele>
        <time>1970-01-01T01:00:00Z</time>
      </trkpt>
      <trkpt lat="58.988536" lon="16.005299">
        <ele>79.9091</ele>
        <time>1970-01-01T01:00:00Z</time>
      </trkpt>
      <trkpt lat="58.988477" lon="16.005405">
        <ele>80</ele>
        <time>1970-01-01T01:00:00Z</time>
      </trkpt>
      <trkpt lat="58.988425" lon="16.005534">
        <ele>80</ele>
        <time>1970-01-01T01:00:00Z</time>
      </trkpt>
      <trkpt lat="58.98836" lon="16.005671">
        <ele>80</ele>
        <time>1970-01-01T01:00:00Z</time>
      </trkpt>
      <trkpt lat="58.988301" lon="16.00582">
        <ele>80</ele>
        <time>1970-01-01T01:00:00Z</time>
      </trkpt>
      <trkpt lat="58.988241" lon="16.005956">
        <ele>79.9091</ele>
        <time>1970-01-01T01:00:00Z</time>
      </trkpt>
      <trkpt lat="58.988181" lon="16.006068">
        <ele>79.8182</ele>
        <time>1970-01-01T01:00:00Z</time>
      </trkpt>
      <trkpt lat="58.988116" lon="16.006184">
        <ele>79.7273</ele>
        <time>1970-01-01T01:00:00Z</time>
      </trkpt>
      <trkpt lat="58.988041" lon="16.006296">
        <ele>79.6364</ele>
        <time>1970-01-01T01:00:00Z</time>
      </trkpt>
      <trkpt lat="58.987987" lon="16.006426">
        <ele>79.4545</ele>
        <time>1970-01-01T01:00:00Z</time>
      </trkpt>
      <trkpt lat="58.987941" lon="16.006581">
        <ele>79.2727</ele>
        <time>1970-01-01T01:00:00Z</time>
      </trkpt>
      <trkpt lat="58.987885" lon="16.006706">
        <ele>79</ele>
        <time>1970-01-01T01:00:00Z</time>
      </trkpt>
      <trkpt lat="58.98783" lon="16.006846">
        <ele>78.7273</ele>
        <time>1970-01-01T01:00:00Z</time>
      </trkpt>
      <trkpt lat="58.987777" lon="16.006969">
        <ele>78.3636</ele>
        <time>1970-01-01T01:00:00Z</time>
      </trkpt>
      <trkpt lat="58.987713" lon="16.007074">
        <ele>77.9091</ele>
        <time>1970-01-01T01:00:00Z</time>
      </trkpt>
      <trkpt lat="58.987631" lon="16.007137">
        <ele>77.4545</ele>
        <time>1970-01-01T01:00:00Z</time>
      </trkpt>
      <trkpt lat="58.987547" lon="16.007154">
        <ele>77.0909</ele>
        <time>1970-01-01T01:00:00Z</time>
      </trkpt>
      <trkpt lat="58.987456" lon="16.007179">
        <ele>76.6364</ele>
        <time>1970-01-01T01:00:00Z</time>
      </trkpt>
      <trkpt lat="58.987367" lon="16.0072">
        <ele>76.1818</ele>
        <time>1970-01-01T01:00:00Z</time>
      </trkpt>
      <trkpt lat="58.987273" lon="16.007234">
        <ele>75.8182</ele>
        <time>1970-01-01T01:00:00Z</time>
      </trkpt>
      <trkpt lat="58.987186" lon="16.007246">
        <ele>75.5455</ele>
        <time>1970-01-01T01:00:00Z</time>
      </trkpt>
      <trkpt lat="58.987101" lon="16.007352">
        <ele>75.2727</ele>
        <time>1970-01-01T01:00:00Z</time>
      </trkpt>
      <trkpt lat="58.987025" lon="16.007418">
        <ele>75.0909</ele>
        <time>1970-01-01T01:00:00Z</time>
      </trkpt>
      <trkpt lat="58.986952" lon="16.007502">
        <ele>74.9091</ele>
        <time>1970-01-01T01:00:00Z</time>
      </trkpt>
      <trkpt lat="58.986876" lon="16.007591">
        <ele>74.9091</ele>
        <time>1970-01-01T01:00:00Z</time>
      </trkpt>
      <trkpt lat="58.986806" lon="16.007681">
        <ele>75</ele>
        <time>1970-01-01T01:00:00Z</time>
      </trkpt>
      <trkpt lat="58.986743" lon="16.007795">
        <ele>75.0909</ele>
        <time>1970-01-01T01:00:00Z</time>
      </trkpt>
      <trkpt lat="58.986683" lon="16.007922">
        <ele>75.1818</ele>
        <time>1970-01-01T01:00:00Z</time>
      </trkpt>
      <trkpt lat="58.986635" lon="16.008048">
        <ele>75.3636</ele>
        <time>1970-01-01T01:00:00Z</time>
      </trkpt>
      <trkpt lat="58.986555" lon="16.00812">
        <ele>75.5455</ele>
        <time>1970-01-01T01:00:00Z</time>
      </trkpt>
      <trkpt lat="58.986484" lon="16.008223">
        <ele>75.5455</ele>
        <time>1970-01-01T01:00:00Z</time>
      </trkpt>
      <trkpt lat="58.986407" lon="16.008304">
        <ele>75.5455</ele>
        <time>1970-01-01T01:00:00Z</time>
      </trkpt>
      <trkpt lat="58.986334" lon="16.008399">
        <ele>75.5455</ele>
        <time>1970-01-01T01:00:00Z</time>
      </trkpt>
      <trkpt lat="58.986263" lon="16.008503">
        <ele>75.6364</ele>
        <time>1970-01-01T01:00:00Z</time>
      </trkpt>
      <trkpt lat="58.986205" lon="16.008622">
        <ele>75.7273</ele>
        <time>1970-01-01T01:00:00Z</time>
      </trkpt>
      <trkpt lat="58.986141" lon="16.00872">
        <ele>75.7273</ele>
        <time>1970-01-01T01:00:00Z</time>
      </trkpt>
      <trkpt lat="58.98607" lon="16.008822">
        <ele>75.6364</ele>
        <time>1970-01-01T01:00:00Z</time>
      </trkpt>
      <trkpt lat="58.985995" lon="16.008907">
        <ele>75.5455</ele>
        <time>1970-01-01T01:00:00Z</time>
      </trkpt>
      <trkpt lat="58.985921" lon="16.008978">
        <ele>75.4545</ele>
        <time>1970-01-01T01:00:00Z</time>
      </trkpt>
      <trkpt lat="58.985834" lon="16.008974">
        <ele>75.3636</ele>
        <time>1970-01-01T01:00:00Z</time>
      </trkpt>
      <trkpt lat="58.985744" lon="16.008993">
        <ele>75.1818</ele>
        <time>1970-01-01T01:00:00Z</time>
      </trkpt>
      <trkpt lat="58.985653" lon="16.009052">
        <ele>75.1818</ele>
        <time>1970-01-01T01:00:00Z</time>
      </trkpt>
      <trkpt lat="58.985574" lon="16.009101">
        <ele>75.1818</ele>
        <time>1970-01-01T01:00:00Z</time>
      </trkpt>
      <trkpt lat="58.985513" lon="16.009241">
        <ele>75.0909</ele>
        <time>1970-01-01T01:00:00Z</time>
      </trkpt>
      <trkpt lat="58.985455" lon="16.00937">
        <ele>74.9091</ele>
        <time>1970-01-01T01:00:00Z</time>
      </trkpt>
      <trkpt lat="58.985387" lon="16.009479">
        <ele>74.7273</ele>
        <time>1970-01-01T01:00:00Z</time>
      </trkpt>
      <trkpt lat="58.985314" lon="16.009593">
        <ele>74.5455</ele>
        <time>1970-01-01T01:00:00Z</time>
      </trkpt>
      <trkpt lat="58.985231" lon="16.009686">
        <ele>74.4545</ele>
        <time>1970-01-01T01:00:00Z</time>
      </trkpt>
      <trkpt lat="58.985148" lon="16.009744">
        <ele>74.3636</ele>
        <time>1970-01-01T01:00:00Z</time>
      </trkpt>
      <trkpt lat="58.985063" lon="16.009787">
        <ele>74.3636</ele>
        <time>1970-01-01T01:00:00Z</time>
      </trkpt>
      <trkpt lat="58.984989" lon="16.009854">
        <ele>74.3636</ele>
        <time>1970-01-01T01:00:00Z</time>
      </trkpt>
      <trkpt lat="58.984918" lon="16.009929">
        <ele>74.4545</ele>
        <time>1970-01-01T01:00:00Z</time>
      </trkpt>
      <trkpt lat="58.984834" lon="16.00999">
        <ele>74.4545</ele>
        <time>1970-01-01T01:00:00Z</time>
      </trkpt>
      <trkpt lat="58.984752" lon="16.010078">
        <ele>74.4545</ele>
        <time>1970-01-01T01:00:00Z</time>
      </trkpt>
      <trkpt lat="58.984691" lon="16.01019">
        <ele>74.5455</ele>
        <time>1970-01-01T01:00:00Z</time>
      </trkpt>
      <trkpt lat="58.984621" lon="16.010285">
        <ele>74.6364</ele>
        <time>1970-01-01T01:00:00Z</time>
      </trkpt>
      <trkpt lat="58.984533" lon="16.010355">
        <ele>74.7273</ele>
        <time>1970-01-01T01:00:00Z</time>
      </trkpt>
      <trkpt lat="58.984453" lon="16.010405">
        <ele>74.8182</ele>
        <time>1970-01-01T01:00:00Z</time>
      </trkpt>
      <trkpt lat="58.984374" lon="16.010447">
        <ele>74.8182</ele>
        <time>1970-01-01T01:00:00Z</time>
      </trkpt>
      <trkpt lat="58.984288" lon="16.010494">
        <ele>74.8182</ele>
        <time>1970-01-01T01:00:00Z</time>
      </trkpt>
      <trkpt lat="58.984206" lon="16.010556">
        <ele>74.6364</ele>
        <time>1970-01-01T01:00:00Z</time>
      </trkpt>
      <trkpt lat="58.984129" lon="16.010627">
        <ele>74.3636</ele>
        <time>1970-01-01T01:00:00Z</time>
      </trkpt>
      <trkpt lat="58.984049" lon="16.010698">
        <ele>74.0909</ele>
        <time>1970-01-01T01:00:00Z</time>
      </trkpt>
      <trkpt lat="58.983968" lon="16.010741">
        <ele>73.7273</ele>
        <time>1970-01-01T01:00:00Z</time>
      </trkpt>
      <trkpt lat="58.983883" lon="16.010803">
        <ele>73.3636</ele>
        <time>1970-01-01T01:00:00Z</time>
      </trkpt>
      <trkpt lat="58.983798" lon="16.010846">
        <ele>73</ele>
        <time>1970-01-01T01:00:00Z</time>
      </trkpt>
      <trkpt lat="58.983716" lon="16.010907">
        <ele>72.6364</ele>
        <time>1970-01-01T01:00:00Z</time>
      </trkpt>
      <trkpt lat="58.983636" lon="16.010938">
        <ele>72.2727</ele>
        <time>1970-01-01T01:00:00Z</time>
      </trkpt>
      <trkpt lat="58.983564" lon="16.011032">
        <ele>71.9091</ele>
        <time>1970-01-01T01:00:00Z</time>
      </trkpt>
      <trkpt lat="58.983508" lon="16.011153">
        <ele>71.6364</ele>
        <time>1970-01-01T01:00:00Z</time>
      </trkpt>
      <trkpt lat="58.983459" lon="16.011297">
        <ele>71.2727</ele>
        <time>1970-01-01T01:00:00Z</time>
      </trkpt>
      <trkpt lat="58.983418" lon="16.011443">
        <ele>70.9091</ele>
        <time>1970-01-01T01:00:00Z</time>
      </trkpt>
      <trkpt lat="58.983381" lon="16.011586">
        <ele>70.6364</ele>
        <time>1970-01-01T01:00:00Z</time>
      </trkpt>
      <trkpt lat="58.983327" lon="16.011731">
        <ele>70.2727</ele>
        <time>1970-01-01T01:00:00Z</time>
      </trkpt>
      <trkpt lat="58.983258" lon="16.011843">
        <ele>69.9091</ele>
        <time>1970-01-01T01:00:00Z</time>
      </trkpt>
      <trkpt lat="58.983168" lon="16.011904">
        <ele>69.4545</ele>
        <time>1970-01-01T01:00:00Z</time>
      </trkpt>
      <trkpt lat="58.983086" lon="16.011953">
        <ele>69</ele>
        <time>1970-01-01T01:00:00Z</time>
      </trkpt>
      <trkpt lat="58.983008" lon="16.01203">
        <ele>68.5455</ele>
        <time>1970-01-01T01:00:00Z</time>
      </trkpt>
      <trkpt lat="58.982933" lon="16.012107">
        <ele>68.0909</ele>
        <time>1970-01-01T01:00:00Z</time>
      </trkpt>
      <trkpt lat="58.98285" lon="16.012152">
        <ele>67.7273</ele>
        <time>1970-01-01T01:00:00Z</time>
      </trkpt>
      <trkpt lat="58.982781" lon="16.012249">
        <ele>67.4545</ele>
        <time>1970-01-01T01:00:00Z</time>
      </trkpt>
      <trkpt lat="58.982723" lon="16.012401">
        <ele>67.3636</ele>
        <time>1970-01-01T01:00:00Z</time>
      </trkpt>
      <trkpt lat="58.982692" lon="16.012551">
        <ele>67.3636</ele>
        <time>1970-01-01T01:00:00Z</time>
      </trkpt>
      <trkpt lat="58.982677" lon="16.012712">
        <ele>67.3636</ele>
        <time>1970-01-01T01:00:00Z</time>
      </trkpt>
      <trkpt lat="58.982681" lon="16.012883">
        <ele>67.5455</ele>
        <time>1970-01-01T01:00:00Z</time>
      </trkpt>
      <trkpt lat="58.982715" lon="16.013034">
        <ele>67.8182</ele>
        <time>1970-01-01T01:00:00Z</time>
      </trkpt>
      <trkpt lat="58.982728" lon="16.013195">
        <ele>68.2727</ele>
        <time>1970-01-01T01:00:00Z</time>
      </trkpt>
      <trkpt lat="58.982723" lon="16.013359">
        <ele>68.8182</ele>
        <time>1970-01-01T01:00:00Z</time>
      </trkpt>
      <trkpt lat="58.982715" lon="16.013542">
        <ele>69.3636</ele>
        <time>1970-01-01T01:00:00Z</time>
      </trkpt>
      <trkpt lat="58.982717" lon="16.013715">
        <ele>70</ele>
        <time>1970-01-01T01:00:00Z</time>
      </trkpt>
      <trkpt lat="58.982725" lon="16.013886">
        <ele>70.5455</ele>
        <time>1970-01-01T01:00:00Z</time>
      </trkpt>
      <trkpt lat="58.982788" lon="16.014018">
        <ele>71</ele>
        <time>1970-01-01T01:00:00Z</time>
      </trkpt>
      <trkpt lat="58.98283" lon="16.014154">
        <ele>71.4545</ele>
        <time>1970-01-01T01:00:00Z</time>
      </trkpt>
      <trkpt lat="58.982854" lon="16.014328">
        <ele>71.9091</ele>
        <time>1970-01-01T01:00:00Z</time>
      </trkpt>
      <trkpt lat="58.982892" lon="16.014482">
        <ele>72.3636</ele>
        <time>1970-01-01T01:00:00Z</time>
      </trkpt>
      <trkpt lat="58.982928" lon="16.014636">
        <ele>72.7273</ele>
        <time>1970-01-01T01:00:00Z</time>
      </trkpt>
      <trkpt lat="58.982958" lon="16.014789">
        <ele>73</ele>
        <time>1970-01-01T01:00:00Z</time>
      </trkpt>
      <trkpt lat="58.982991" lon="16.014941">
        <ele>73.1818</ele>
        <time>1970-01-01T01:00:00Z</time>
      </trkpt>
      <trkpt lat="58.983023" lon="16.015089">
        <ele>73.3636</ele>
        <time>1970-01-01T01:00:00Z</time>
      </trkpt>
      <trkpt lat="58.983065" lon="16.015226">
        <ele>73.5455</ele>
        <time>1970-01-01T01:00:00Z</time>
      </trkpt>
      <trkpt lat="58.983091" lon="16.015389">
        <ele>73.6364</ele>
        <time>1970-01-01T01:00:00Z</time>
      </trkpt>
      <trkpt lat="58.983132" lon="16.015559">
        <ele>73.7273</ele>
        <time>1970-01-01T01:00:00Z</time>
      </trkpt>
      <trkpt lat="58.983174" lon="16.015694">
        <ele>73.8182</ele>
        <time>1970-01-01T01:00:00Z</time>
      </trkpt>
      <trkpt lat="58.983223" lon="16.015829">
        <ele>73.9091</ele>
        <time>1970-01-01T01:00:00Z</time>
      </trkpt>
      <trkpt lat="58.983301" lon="16.015942">
        <ele>74.0909</ele>
        <time>1970-01-01T01:00:00Z</time>
      </trkpt>
      <trkpt lat="58.983361" lon="16.016068">
        <ele>74.2727</ele>
        <time>1970-01-01T01:00:00Z</time>
      </trkpt>
      <trkpt lat="58.983406" lon="16.0162">
        <ele>74.4545</ele>
        <time>1970-01-01T01:00:00Z</time>
      </trkpt>
      <trkpt lat="58.983462" lon="16.016345">
        <ele>74.8182</ele>
        <time>1970-01-01T01:00:00Z</time>
      </trkpt>
      <trkpt lat="58.983506" lon="16.016485">
        <ele>75.1818</ele>
        <time>1970-01-01T01:00:00Z</time>
      </trkpt>
      <trkpt lat="58.98356" lon="16.016623">
        <ele>75.5455</ele>
        <time>1970-01-01T01:00:00Z</time>
      </trkpt>
      <trkpt lat="58.983598" lon="16.016787">
        <ele>75.9091</ele>
        <time>1970-01-01T01:00:00Z</time>
      </trkpt>
      <trkpt lat="58.983672" lon="16.016888">
        <ele>76.2727</ele>
        <time>1970-01-01T01:00:00Z</time>
      </trkpt>
      <trkpt lat="58.983713" lon="16.017039">
        <ele>76.6364</ele>
        <time>1970-01-01T01:00:00Z</time>
      </trkpt>
      <trkpt lat="58.98373" lon="16.017209">
        <ele>77</ele>
        <time>1970-01-01T01:00:00Z</time>
      </trkpt>
      <trkpt lat="58.983789" lon="16.017331">
        <ele>77.2727</ele>
        <time>1970-01-01T01:00:00Z</time>
      </trkpt>
      <trkpt lat="58.983847" lon="16.017479">
        <ele>77.4545</ele>
        <time>1970-01-01T01:00:00Z</time>
      </trkpt>
      <trkpt lat="58.983886" lon="16.017637">
        <ele>77.5455</ele>
        <time>1970-01-01T01:00:00Z</time>
      </trkpt>
      <trkpt lat="58.983919" lon="16.017784">
        <ele>77.6364</ele>
        <time>1970-01-01T01:00:00Z</time>
      </trkpt>
      <trkpt lat="58.983929" lon="16.01794">
        <ele>77.6364</ele>
        <time>1970-01-01T01:00:00Z</time>
      </trkpt>
      <trkpt lat="58.983954" lon="16.018093">
        <ele>77.6364</ele>
        <time>1970-01-01T01:00:00Z</time>
      </trkpt>
      <trkpt lat="58.984003" lon="16.018235">
        <ele>77.4545</ele>
        <time>1970-01-01T01:00:00Z</time>
      </trkpt>
      <trkpt lat="58.984045" lon="16.018383">
        <ele>77.2727</ele>
        <time>1970-01-01T01:00:00Z</time>
      </trkpt>
      <trkpt lat="58.984087" lon="16.018531">
        <ele>77.0909</ele>
        <time>1970-01-01T01:00:00Z</time>
      </trkpt>
      <trkpt lat="58.984115" lon="16.018709">
        <ele>76.8182</ele>
        <time>1970-01-01T01:00:00Z</time>
      </trkpt>
      <trkpt lat="58.984185" lon="16.018834">
        <ele>76.5455</ele>
        <time>1970-01-01T01:00:00Z</time>
      </trkpt>
      <trkpt lat="58.984212" lon="16.019005">
        <ele>76.2727</ele>
        <time>1970-01-01T01:00:00Z</time>
      </trkpt>
      <trkpt lat="58.984242" lon="16.019167">
        <ele>75.9091</ele>
        <time>1970-01-01T01:00:00Z</time>
      </trkpt>
      <trkpt lat="58.98426" lon="16.019321">
        <ele>75.6364</ele>
        <time>1970-01-01T01:00:00Z</time>
      </trkpt>
      <trkpt lat="58.984286" lon="16.019476">
        <ele>75.2727</ele>
        <time>1970-01-01T01:00:00Z</time>
      </trkpt>
      <trkpt lat="58.984326" lon="16.019647">
        <ele>74.9091</ele>
        <time>1970-01-01T01:00:00Z</time>
      </trkpt>
      <trkpt lat="58.984367" lon="16.019806">
        <ele>74.5455</ele>
        <time>1970-01-01T01:00:00Z</time>
      </trkpt>
      <trkpt lat="58.984413" lon="16.019937">
        <ele>74.1818</ele>
        <time>1970-01-01T01:00:00Z</time>
      </trkpt>
      <trkpt lat="58.984448" lon="16.020088">
        <ele>73.8182</ele>
        <time>1970-01-01T01:00:00Z</time>
      </trkpt>
      <trkpt lat="58.984487" lon="16.02023">
        <ele>73.4545</ele>
        <time>1970-01-01T01:00:00Z</time>
      </trkpt>
      <trkpt lat="58.98453" lon="16.020389">
        <ele>73.1818</ele>
        <time>1970-01-01T01:00:00Z</time>
      </trkpt>
      <trkpt lat="58.984569" lon="16.020547">
        <ele>72.9091</ele>
        <time>1970-01-01T01:00:00Z</time>
      </trkpt>
      <trkpt lat="58.984582" lon="16.020716">
        <ele>72.6364</ele>
        <time>1970-01-01T01:00:00Z</time>
      </trkpt>
      <trkpt lat="58.98461" lon="16.020878">
        <ele>72.4545</ele>
        <time>1970-01-01T01:00:00Z</time>
      </trkpt>
      <trkpt lat="58.98467" lon="16.021009">
        <ele>72.2727</ele>
        <time>1970-01-01T01:00:00Z</time>
      </trkpt>
      <trkpt lat="58.984729" lon="16.021123">
        <ele>72.1818</ele>
        <time>1970-01-01T01:00:00Z</time>
      </trkpt>
      <trkpt lat="58.984777" lon="16.021259">
        <ele>72.0909</ele>
        <time>1970-01-01T01:00:00Z</time>
      </trkpt>
      <trkpt lat="58.984793" lon="16.021426">
        <ele>71.9091</ele>
        <time>1970-01-01T01:00:00Z</time>
      </trkpt>
      <trkpt lat="58.984853" lon="16.021548">
        <ele>71.8182</ele>
        <time>1970-01-01T01:00:00Z</time>
      </trkpt>
      <trkpt lat="58.984903" lon="16.021681">
        <ele>71.8182</ele>
        <time>1970-01-01T01:00:00Z</time>
      </trkpt>
      <trkpt lat="58.98494" lon="16.021841">
        <ele>71.7273</ele>
        <time>1970-01-01T01:00:00Z</time>
      </trkpt>
      <trkpt lat="58.984991" lon="16.021982">
        <ele>71.6364</ele>
        <time>1970-01-01T01:00:00Z</time>
      </trkpt>
      <trkpt lat="58.985037" lon="16.022137">
        <ele>71.5455</ele>
        <time>1970-01-01T01:00:00Z</time>
      </trkpt>
      <trkpt lat="58.985088" lon="16.022269">
        <ele>71.4545</ele>
        <time>1970-01-01T01:00:00Z</time>
      </trkpt>
      <trkpt lat="58.985145" lon="16.022402">
        <ele>71.3636</ele>
        <time>1970-01-01T01:00:00Z</time>
      </trkpt>
      <trkpt lat="58.985165" lon="16.022556">
        <ele>71.2727</ele>
        <time>1970-01-01T01:00:00Z</time>
      </trkpt>
      <trkpt lat="58.985196" lon="16.022717">
        <ele>71.1818</ele>
        <time>1970-01-01T01:00:00Z</time>
      </trkpt>
      <trkpt lat="58.985243" lon="16.022865">
        <ele>71</ele>
        <time>1970-01-01T01:00:00Z</time>
      </trkpt>
      <trkpt lat="58.985273" lon="16.023046">
        <ele>70.9091</ele>
        <time>1970-01-01T01:00:00Z</time>
      </trkpt>
      <trkpt lat="58.985293" lon="16.023201">
        <ele>70.7273</ele>
        <time>1970-01-01T01:00:00Z</time>
      </trkpt>
      <trkpt lat="58.985314" lon="16.023391">
        <ele>70.4545</ele>
        <time>1970-01-01T01:00:00Z</time>
      </trkpt>
      <trkpt lat="58.985366" lon="16.023538">
        <ele>70.2727</ele>
        <time>1970-01-01T01:00:00Z</time>
      </trkpt>
      <trkpt lat="58.985387" lon="16.023692">
        <ele>70.0909</ele>
        <time>1970-01-01T01:00:00Z</time>
      </trkpt>
      <trkpt lat="58.985414" lon="16.023872">
        <ele>69.9091</ele>
        <time>1970-01-01T01:00:00Z</time>
      </trkpt>
      <trkpt lat="58.985459" lon="16.024009">
        <ele>69.7273</ele>
        <time>1970-01-01T01:00:00Z</time>
      </trkpt>
      <trkpt lat="58.985508" lon="16.024161">
        <ele>69.6364</ele>
        <time>1970-01-01T01:00:00Z</time>
      </trkpt>
      <trkpt lat="58.985537" lon="16.024317">
        <ele>69.5455</ele>
        <time>1970-01-01T01:00:00Z</time>
      </trkpt>
      <trkpt lat="58.985563" lon="16.024471">
        <ele>69.4545</ele>
        <time>1970-01-01T01:00:00Z</time>
      </trkpt>
      <trkpt lat="58.985623" lon="16.024603">
        <ele>69.4545</ele>
        <time>1970-01-01T01:00:00Z</time>
      </trkpt>
      <trkpt lat="58.985673" lon="16.024734">
        <ele>69.4545</ele>
        <time>1970-01-01T01:00:00Z</time>
      </trkpt>
      <trkpt lat="58.985723" lon="16.024892">
        <ele>69.5455</ele>
        <time>1970-01-01T01:00:00Z</time>
      </trkpt>
      <trkpt lat="58.98576" lon="16.025037">
        <ele>69.7273</ele>
        <time>1970-01-01T01:00:00Z</time>
      </trkpt>
      <trkpt lat="58.985783" lon="16.025211">
        <ele>69.9091</ele>
        <time>1970-01-01T01:00:00Z</time>
      </trkpt>
      <trkpt lat="58.985817" lon="16.02536">
        <ele>70.1818</ele>
        <time>1970-01-01T01:00:00Z</time>
      </trkpt>
      <trkpt lat="58.985857" lon="16.025519">
        <ele>70.4545</ele>
        <time>1970-01-01T01:00:00Z</time>
      </trkpt>
      <trkpt lat="58.985894" lon="16.025681">
        <ele>70.8182</ele>
        <time>1970-01-01T01:00:00Z</time>
      </trkpt>
      <trkpt lat="58.985912" lon="16.025853">
        <ele>71.1818</ele>
        <time>1970-01-01T01:00:00Z</time>
      </trkpt>
      <trkpt lat="58.985951" lon="16.025992">
        <ele>71.4545</ele>
        <time>1970-01-01T01:00:00Z</time>
      </trkpt>
      <trkpt lat="58.986004" lon="16.026158">
        <ele>71.7273</ele>
        <time>1970-01-01T01:00:00Z</time>
      </trkpt>
      <trkpt lat="58.98605" lon="16.026311">
        <ele>72</ele>
        <time>1970-01-01T01:00:00Z</time>
      </trkpt>
      <trkpt lat="58.986086" lon="16.026477">
        <ele>72.2727</ele>
        <time>1970-01-01T01:00:00Z</time>
      </trkpt>
      <trkpt lat="58.986084" lon="16.026647">
        <ele>72.5455</ele>
        <time>1970-01-01T01:00:00Z</time>
      </trkpt>
      <trkpt lat="58.986049" lon="16.026794">
        <ele>72.6364</ele>
        <time>1970-01-01T01:00:00Z</time>
      </trkpt>
      <trkpt lat="58.985978" lon="16.026897">
        <ele>72.6364</ele>
        <time>1970-01-01T01:00:00Z</time>
      </trkpt>
      <trkpt lat="58.985918" lon="16.027013">
        <ele>72.5455</ele>
        <time>1970-01-01T01:00:00Z</time>
      </trkpt>
      <trkpt lat="58.985854" lon="16.027144">
        <ele>72.4545</ele>
        <time>1970-01-01T01:00:00Z</time>
      </trkpt>
      <trkpt lat="58.985814" lon="16.027313">
        <ele>72.1818</ele>
        <time>1970-01-01T01:00:00Z</time>
      </trkpt>
      <trkpt lat="58.985739" lon="16.02738">
        <ele>71.8182</ele>
        <time>1970-01-01T01:00:00Z</time>
      </trkpt>
      <trkpt lat="58.985671" lon="16.027492">
        <ele>71.5455</ele>
        <time>1970-01-01T01:00:00Z</time>
      </trkpt>
      <trkpt lat="58.985606" lon="16.0276">
        <ele>71.3636</ele>
        <time>1970-01-01T01:00:00Z</time>
      </trkpt>
      <trkpt lat="58.985541" lon="16.027709">
        <ele>71.2727</ele>
        <time>1970-01-01T01:00:00Z</time>
      </trkpt>
      <trkpt lat="58.985456" lon="16.02775">
        <ele>71.2727</ele>
        <time>1970-01-01T01:00:00Z</time>
      </trkpt>
      <trkpt lat="58.985389" lon="16.027861">
        <ele>71.3636</ele>
        <time>1970-01-01T01:00:00Z</time>
      </trkpt>
      <trkpt lat="58.985333" lon="16.027989">
        <ele>71.7273</ele>
        <time>1970-01-01T01:00:00Z</time>
      </trkpt>
      <trkpt lat="58.985285" lon="16.028142">
        <ele>72.2727</ele>
        <time>1970-01-01T01:00:00Z</time>
      </trkpt>
      <trkpt lat="58.98528" lon="16.028321">
        <ele>73</ele>
        <time>1970-01-01T01:00:00Z</time>
      </trkpt>
      <trkpt lat="58.985276" lon="16.028481">
        <ele>73.8182</ele>
        <time>1970-01-01T01:00:00Z</time>
      </trkpt>
      <trkpt lat="58.985238" lon="16.028632">
        <ele>74.8182</ele>
        <time>1970-01-01T01:00:00Z</time>
      </trkpt>
      <trkpt lat="58.985223" lon="16.028797">
        <ele>75.9091</ele>
        <time>1970-01-01T01:00:00Z</time>
      </trkpt>
      <trkpt lat="58.985211" lon="16.02896">
        <ele>77.0909</ele>
        <time>1970-01-01T01:00:00Z</time>
      </trkpt>
      <trkpt lat="58.985218" lon="16.029127">
        <ele>78.2727</ele>
        <time>1970-01-01T01:00:00Z</time>
      </trkpt>
      <trkpt lat="58.985242" lon="16.029305">
        <ele>79.3636</ele>
        <time>1970-01-01T01:00:00Z</time>
      </trkpt>
      <trkpt lat="58.985245" lon="16.029471">
        <ele>80.3636</ele>
        <time>1970-01-01T01:00:00Z</time>
      </trkpt>
      <trkpt lat="58.985242" lon="16.029642">
        <ele>81.3636</ele>
        <time>1970-01-01T01:00:00Z</time>
      </trkpt>
      <trkpt lat="58.985253" lon="16.029815">
        <ele>82.1818</ele>
        <time>1970-01-01T01:00:00Z</time>
      </trkpt>
      <trkpt lat="58.985271" lon="16.029974">
        <ele>82.9091</ele>
        <time>1970-01-01T01:00:00Z</time>
      </trkpt>
      <trkpt lat="58.985283" lon="16.030142">
        <ele>83.4545</ele>
        <time>1970-01-01T01:00:00Z</time>
      </trkpt>
      <trkpt lat="58.985281" lon="16.030308">
        <ele>83.9091</ele>
        <time>1970-01-01T01:00:00Z</time>
      </trkpt>
      <trkpt lat="58.985271" lon="16.030469">
        <ele>84.2727</ele>
        <time>1970-01-01T01:00:00Z</time>
      </trkpt>
      <trkpt lat="58.985281" lon="16.030627">
        <ele>84.5455</ele>
        <time>1970-01-01T01:00:00Z</time>
      </trkpt>
      <trkpt lat="58.985292" lon="16.030804">
        <ele>84.7273</ele>
        <time>1970-01-01T01:00:00Z</time>
      </trkpt>
      <trkpt lat="58.9853" lon="16.03099">
        <ele>84.8182</ele>
        <time>1970-01-01T01:00:00Z</time>
      </trkpt>
      <trkpt lat="58.985304" lon="16.031163">
        <ele>84.9091</ele>
        <time>1970-01-01T01:00:00Z</time>
      </trkpt>
      <trkpt lat="58.98531" lon="16.031346">
        <ele>84.9091</ele>
        <time>1970-01-01T01:00:00Z</time>
      </trkpt>
      <trkpt lat="58.985314" lon="16.031529">
        <ele>84.7273</ele>
        <time>1970-01-01T01:00:00Z</time>
      </trkpt>
      <trkpt lat="58.985305" lon="16.031693">
        <ele>84.4545</ele>
        <time>1970-01-01T01:00:00Z</time>
      </trkpt>
      <trkpt lat="58.985293" lon="16.03185">
        <ele>84.0909</ele>
        <time>1970-01-01T01:00:00Z</time>
      </trkpt>
      <trkpt lat="58.985282" lon="16.032009">
        <ele>83.5455</ele>
        <time>1970-01-01T01:00:00Z</time>
      </trkpt>
      <trkpt lat="58.985275" lon="16.032175">
        <ele>82.8182</ele>
        <time>1970-01-01T01:00:00Z</time>
      </trkpt>
      <trkpt lat="58.985278" lon="16.032338">
        <ele>81.9091</ele>
        <time>1970-01-01T01:00:00Z</time>
      </trkpt>
      <trkpt lat="58.985279" lon="16.032498">
        <ele>80.8182</ele>
        <time>1970-01-01T01:00:00Z</time>
      </trkpt>
      <trkpt lat="58.985259" lon="16.032651">
        <ele>79.6364</ele>
        <time>1970-01-01T01:00:00Z</time>
      </trkpt>
      <trkpt lat="58.985249" lon="16.032821">
        <ele>78.4545</ele>
        <time>1970-01-01T01:00:00Z</time>
      </trkpt>
      <trkpt lat="58.985232" lon="16.032993">
        <ele>77.1818</ele>
        <time>1970-01-01T01:00:00Z</time>
      </trkpt>
      <trkpt lat="58.985237" lon="16.033151">
        <ele>75.9091</ele>
        <time>1970-01-01T01:00:00Z</time>
      </trkpt>
      <trkpt lat="58.985238" lon="16.03332">
        <ele>74.7273</ele>
        <time>1970-01-01T01:00:00Z</time>
      </trkpt>
      <trkpt lat="58.985233" lon="16.033483">
        <ele>73.7273</ele>
        <time>1970-01-01T01:00:00Z</time>
      </trkpt>
      <trkpt lat="58.985274" lon="16.033622">
        <ele>72.7273</ele>
        <time>1970-01-01T01:00:00Z</time>
      </trkpt>
      <trkpt lat="58.985304" lon="16.033771">
        <ele>71.9091</ele>
        <time>1970-01-01T01:00:00Z</time>
      </trkpt>
      <trkpt lat="58.985346" lon="16.033923">
        <ele>71.2727</ele>
        <time>1970-01-01T01:00:00Z</time>
      </trkpt>
      <trkpt lat="58.985394" lon="16.034057">
        <ele>70.7273</ele>
        <time>1970-01-01T01:00:00Z</time>
      </trkpt>
      <trkpt lat="58.985433" lon="16.034199">
        <ele>70.3636</ele>
        <time>1970-01-01T01:00:00Z</time>
      </trkpt>
      <trkpt lat="58.98546" lon="16.034354">
        <ele>70.0909</ele>
        <time>1970-01-01T01:00:00Z</time>
      </trkpt>
      <trkpt lat="58.985452" lon="16.034523">
        <ele>69.8182</ele>
        <time>1970-01-01T01:00:00Z</time>
      </trkpt>
      <trkpt lat="58.985419" lon="16.034705">
        <ele>69.6364</ele>
        <time>1970-01-01T01:00:00Z</time>
      </trkpt>
      <trkpt lat="58.985389" lon="16.034851">
        <ele>69.5455</ele>
        <time>1970-01-01T01:00:00Z</time>
      </trkpt>
      <trkpt lat="58.985366" lon="16.035012">
        <ele>69.4545</ele>
        <time>1970-01-01T01:00:00Z</time>
      </trkpt>
      <trkpt lat="58.985328" lon="16.035173">
        <ele>69.2727</ele>
        <time>1970-01-01T01:00:00Z</time>
      </trkpt>
      <trkpt lat="58.985287" lon="16.035339">
        <ele>69.1818</ele>
        <time>1970-01-01T01:00:00Z</time>
      </trkpt>
      <trkpt lat="58.985258" lon="16.0355">
        <ele>69.0909</ele>
        <time>1970-01-01T01:00:00Z</time>
      </trkpt>
      <trkpt lat="58.985234" lon="16.035663">
        <ele>69</ele>
        <time>1970-01-01T01:00:00Z</time>
      </trkpt>
      <trkpt lat="58.985214" lon="16.035824">
        <ele>69</ele>
        <time>1970-01-01T01:00:00Z</time>
      </trkpt>
      <trkpt lat="58.985199" lon="16.035983">
        <ele>69</ele>
        <time>1970-01-01T01:00:00Z</time>
      </trkpt>
      <trkpt lat="58.9852" lon="16.036155">
        <ele>69</ele>
        <time>1970-01-01T01:00:00Z</time>
      </trkpt>
      <trkpt lat="58.985178" lon="16.036313">
        <ele>69.0909</ele>
        <time>1970-01-01T01:00:00Z</time>
      </trkpt>
      <trkpt lat="58.985164" lon="16.036489">
        <ele>69.1818</ele>
        <time>1970-01-01T01:00:00Z</time>
      </trkpt>
      <trkpt lat="58.985146" lon="16.036664">
        <ele>69.1818</ele>
        <time>1970-01-01T01:00:00Z</time>
      </trkpt>
      <trkpt lat="58.985139" lon="16.03685">
        <ele>69.1818</ele>
        <time>1970-01-01T01:00:00Z</time>
      </trkpt>
      <trkpt lat="58.985127" lon="16.037043">
        <ele>69.1818</ele>
        <time>1970-01-01T01:00:00Z</time>
      </trkpt>
      <trkpt lat="58.985114" lon="16.037219">
        <ele>69.0909</ele>
        <time>1970-01-01T01:00:00Z</time>
      </trkpt>
      <trkpt lat="58.985112" lon="16.037405">
        <ele>69</ele>
        <time>1970-01-01T01:00:00Z</time>
      </trkpt>
      <trkpt lat="58.985068" lon="16.037555">
        <ele>68.9091</ele>
        <time>1970-01-01T01:00:00Z</time>
      </trkpt>
      <trkpt lat="58.98501" lon="16.037702">
        <ele>68.9091</ele>
        <time>1970-01-01T01:00:00Z</time>
      </trkpt>
      <trkpt lat="58.984971" lon="16.037848">
        <ele>69</ele>
        <time>1970-01-01T01:00:00Z</time>
      </trkpt>
      <trkpt lat="58.984943" lon="16.038012">
        <ele>69.0909</ele>
        <time>1970-01-01T01:00:00Z</time>
      </trkpt>
      <trkpt lat="58.984941" lon="16.038183">
        <ele>69.0909</ele>
        <time>1970-01-01T01:00:00Z</time>
      </trkpt>
      <trkpt lat="58.984903" lon="16.038328">
        <ele>69.1818</ele>
        <time>1970-01-01T01:00:00Z</time>
      </trkpt>
      <trkpt lat="58.984905" lon="16.038492">
        <ele>69.3636</ele>
        <time>1970-01-01T01:00:00Z</time>
      </trkpt>
      <trkpt lat="58.984945" lon="16.038642">
        <ele>69.5455</ele>
        <time>1970-01-01T01:00:00Z</time>
      </trkpt>
      <trkpt lat="58.985028" lon="16.038652">
        <ele>69.7273</ele>
        <time>1970-01-01T01:00:00Z</time>
      </trkpt>
      <trkpt lat="58.985122" lon="16.038621">
        <ele>70</ele>
        <time>1970-01-01T01:00:00Z</time>
      </trkpt>
      <trkpt lat="58.985208" lon="16.038566">
        <ele>70.3636</ele>
        <time>1970-01-01T01:00:00Z</time>
      </trkpt>
      <trkpt lat="58.985295" lon="16.038536">
        <ele>70.7273</ele>
        <time>1970-01-01T01:00:00Z</time>
      </trkpt>
      <trkpt lat="58.985382" lon="16.038497">
        <ele>71</ele>
        <time>1970-01-01T01:00:00Z</time>
      </trkpt>
      <trkpt lat="58.985454" lon="16.038405">
        <ele>71.1818</ele>
        <time>1970-01-01T01:00:00Z</time>
      </trkpt>
      <trkpt lat="58.985521" lon="16.038293">
        <ele>71.2727</ele>
        <time>1970-01-01T01:00:00Z</time>
      </trkpt>
      <trkpt lat="58.985587" lon="16.038191">
        <ele>71.2727</ele>
        <time>1970-01-01T01:00:00Z</time>
      </trkpt>
      <trkpt lat="58.985647" lon="16.038071">
        <ele>71.0909</ele>
        <time>1970-01-01T01:00:00Z</time>
      </trkpt>
      <trkpt lat="58.985723" lon="16.037954">
        <ele>70.9091</ele>
        <time>1970-01-01T01:00:00Z</time>
      </trkpt>
      <trkpt lat="58.985803" lon="16.037915">
        <ele>70.7273</ele>
        <time>1970-01-01T01:00:00Z</time>
      </trkpt>
      <trkpt lat="58.985887" lon="16.037904">
        <ele>70.4545</ele>
        <time>1970-01-01T01:00:00Z</time>
      </trkpt>
      <trkpt lat="58.985978" lon="16.037889">
        <ele>70.1818</ele>
        <time>1970-01-01T01:00:00Z</time>
      </trkpt>
      <trkpt lat="58.986072" lon="16.037893">
        <ele>69.8182</ele>
        <time>1970-01-01T01:00:00Z</time>
      </trkpt>
      <trkpt lat="58.986161" lon="16.037898">
        <ele>69.4545</ele>
        <time>1970-01-01T01:00:00Z</time>
      </trkpt>
      <trkpt lat="58.986248" lon="16.037887">
        <ele>69.1818</ele>
        <time>1970-01-01T01:00:00Z</time>
      </trkpt>
      <trkpt lat="58.986341" lon="16.037864">
        <ele>68.9091</ele>
        <time>1970-01-01T01:00:00Z</time>
      </trkpt>
      <trkpt lat="58.98643" lon="16.037873">
        <ele>68.7273</ele>
        <time>1970-01-01T01:00:00Z</time>
      </trkpt>
      <trkpt lat="58.986515" lon="16.037896">
        <ele>68.7273</ele>
        <time>1970-01-01T01:00:00Z</time>
      </trkpt>
      <trkpt lat="58.986594" lon="16.037949">
        <ele>68.8182</ele>
        <time>1970-01-01T01:00:00Z</time>
      </trkpt>
      <trkpt lat="58.986683" lon="16.037946">
        <ele>69</ele>
        <time>1970-01-01T01:00:00Z</time>
      </trkpt>
      <trkpt lat="58.986788" lon="16.037946">
        <ele>69.1818</ele>
        <time>1970-01-01T01:00:00Z</time>
      </trkpt>
      <trkpt lat="58.98687" lon="16.037952">
        <ele>69.5455</ele>
        <time>1970-01-01T01:00:00Z</time>
      </trkpt>
      <trkpt lat="58.986964" lon="16.037951">
        <ele>69.9091</ele>
        <time>1970-01-01T01:00:00Z</time>
      </trkpt>
      <trkpt lat="58.987054" lon="16.037979">
        <ele>70.3636</ele>
        <time>1970-01-01T01:00:00Z</time>
      </trkpt>
      <trkpt lat="58.987144" lon="16.037975">
        <ele>70.8182</ele>
        <time>1970-01-01T01:00:00Z</time>
      </trkpt>
      <trkpt lat="58.987223" lon="16.038029">
        <ele>71.1818</ele>
        <time>1970-01-01T01:00:00Z</time>
      </trkpt>
      <trkpt lat="58.987298" lon="16.038097">
        <ele>71.5455</ele>
        <time>1970-01-01T01:00:00Z</time>
      </trkpt>
      <trkpt lat="58.98738" lon="16.038134">
        <ele>71.9091</ele>
        <time>1970-01-01T01:00:00Z</time>
      </trkpt>
      <trkpt lat="58.987472" lon="16.038182">
        <ele>72.1818</ele>
        <time>1970-01-01T01:00:00Z</time>
      </trkpt>
      <trkpt lat="58.987542" lon="16.038265">
        <ele>72.4545</ele>
        <time>1970-01-01T01:00:00Z</time>
      </trkpt>
      <trkpt lat="58.987616" lon="16.038358">
        <ele>72.6364</ele>
        <time>1970-01-01T01:00:00Z</time>
      </trkpt>
      <trkpt lat="58.987696" lon="16.038443">
        <ele>72.9091</ele>
        <time>1970-01-01T01:00:00Z</time>
      </trkpt>
      <trkpt lat="58.987773" lon="16.038513">
        <ele>73</ele>
        <time>1970-01-01T01:00:00Z</time>
      </trkpt>
      <trkpt lat="58.987839" lon="16.038621">
        <ele>73.0909</ele>
        <time>1970-01-01T01:00:00Z</time>
      </trkpt>
      <trkpt lat="58.987926" lon="16.03869">
        <ele>73</ele>
        <time>1970-01-01T01:00:00Z</time>
      </trkpt>
      <trkpt lat="58.987998" lon="16.038763">
        <ele>72.8182</ele>
        <time>1970-01-01T01:00:00Z</time>
      </trkpt>
      <trkpt lat="58.988069" lon="16.03886">
        <ele>72.4545</ele>
        <time>1970-01-01T01:00:00Z</time>
      </trkpt>
      <trkpt lat="58.988134" lon="16.038959">
        <ele>72</ele>
        <time>1970-01-01T01:00:00Z</time>
      </trkpt>
      <trkpt lat="58.988208" lon="16.039049">
        <ele>71.4545</ele>
        <time>1970-01-01T01:00:00Z</time>
      </trkpt>
      <trkpt lat="58.988289" lon="16.038987">
        <ele>70.9091</ele>
        <time>1970-01-01T01:00:00Z</time>
      </trkpt>
      <trkpt lat="58.988331" lon="16.038839">
        <ele>70.3636</ele>
        <time>1970-01-01T01:00:00Z</time>
      </trkpt>
      <trkpt lat="58.988353" lon="16.038665">
        <ele>69.8182</ele>
        <time>1970-01-01T01:00:00Z</time>
      </trkpt>
      <trkpt lat="58.98837" lon="16.038496">
        <ele>69.1818</ele>
        <time>1970-01-01T01:00:00Z</time>
      </trkpt>
      <trkpt lat="58.98839" lon="16.038316">
        <ele>68.7273</ele>
        <time>1970-01-01T01:00:00Z</time>
      </trkpt>
      <trkpt lat="58.988403" lon="16.038156">
        <ele>68.2727</ele>
        <time>1970-01-01T01:00:00Z</time>
      </trkpt>
      <trkpt lat="58.988411" lon="16.037989">
        <ele>67.9091</ele>
        <time>1970-01-01T01:00:00Z</time>
      </trkpt>
      <trkpt lat="58.988412" lon="16.03782">
        <ele>67.5455</ele>
        <time>1970-01-01T01:00:00Z</time>
      </trkpt>
      <trkpt lat="58.988409" lon="16.037661">
        <ele>67.2727</ele>
        <time>1970-01-01T01:00:00Z</time>
      </trkpt>
      <trkpt lat="58.988412" lon="16.037498">
        <ele>67</ele>
        <time>1970-01-01T01:00:00Z</time>
      </trkpt>
      <trkpt lat="58.988447" lon="16.037345">
        <ele>66.7273</ele>
        <time>1970-01-01T01:00:00Z</time>
      </trkpt>
      <trkpt lat="58.988496" lon="16.037216">
        <ele>66.4545</ele>
        <time>1970-01-01T01:00:00Z</time>
      </trkpt>
      <trkpt lat="58.988552" lon="16.037098">
        <ele>66.0909</ele>
        <time>1970-01-01T01:00:00Z</time>
      </trkpt>
      <trkpt lat="58.98862" lon="16.037003">
        <ele>65.7273</ele>
        <time>1970-01-01T01:00:00Z</time>
      </trkpt>
      <trkpt lat="58.988693" lon="16.036922">
        <ele>65.3636</ele>
        <time>1970-01-01T01:00:00Z</time>
      </trkpt>
      <trkpt lat="58.988752" lon="16.036794">
        <ele>65</ele>
        <time>1970-01-01T01:00:00Z</time>
      </trkpt>
      <trkpt lat="58.988812" lon="16.036688">
        <ele>64.6364</ele>
        <time>1970-01-01T01:00:00Z</time>
      </trkpt>
      <trkpt lat="58.988876" lon="16.036563">
        <ele>64.2727</ele>
        <time>1970-01-01T01:00:00Z</time>
      </trkpt>
      <trkpt lat="58.988941" lon="16.036449">
        <ele>64.0909</ele>
        <time>1970-01-01T01:00:00Z</time>
      </trkpt>
      <trkpt lat="58.989008" lon="16.03636">
        <ele>64.0909</ele>
        <time>1970-01-01T01:00:00Z</time>
      </trkpt>
      <trkpt lat="58.989076" lon="16.036254">
        <ele>64.1818</ele>
        <time>1970-01-01T01:00:00Z</time>
      </trkpt>
      <trkpt lat="58.989118" lon="16.036117">
        <ele>64.3636</ele>
        <time>1970-01-01T01:00:00Z</time>
      </trkpt>
      <trkpt lat="58.989167" lon="16.035982">
        <ele>64.5455</ele>
        <time>1970-01-01T01:00:00Z</time>
      </trkpt>
      <trkpt lat="58.989188" lon="16.035812">
        <ele>64.8182</ele>
        <time>1970-01-01T01:00:00Z</time>
      </trkpt>
      <trkpt lat="58.9892" lon="16.035646">
        <ele>65.0909</ele>
        <time>1970-01-01T01:00:00Z</time>
      </trkpt>
      <trkpt lat="58.989231" lon="16.035496">
        <ele>65.3636</ele>
        <time>1970-01-01T01:00:00Z</time>
      </trkpt>
      <trkpt lat="58.989272" lon="16.035331">
        <ele>65.5455</ele>
        <time>1970-01-01T01:00:00Z</time>
      </trkpt>
      <trkpt lat="58.989316" lon="16.035176">
        <ele>65.7273</ele>
        <time>1970-01-01T01:00:00Z</time>
      </trkpt>
      <trkpt lat="58.989365" lon="16.035027">
        <ele>66</ele>
        <time>1970-01-01T01:00:00Z</time>
      </trkpt>
      <trkpt lat="58.989412" lon="16.034887">
        <ele>66.2727</ele>
        <time>1970-01-01T01:00:00Z</time>
      </trkpt>
      <trkpt lat="58.989483" lon="16.034777">
        <ele>66.4545</ele>
        <time>1970-01-01T01:00:00Z</time>
      </trkpt>
      <trkpt lat="58.989549" lon="16.034676">
        <ele>66.7273</ele>
        <time>1970-01-01T01:00:00Z</time>
      </trkpt>
      <trkpt lat="58.989614" lon="16.034573">
        <ele>67</ele>
        <time>1970-01-01T01:00:00Z</time>
      </trkpt>
      <trkpt lat="58.989685" lon="16.03445">
        <ele>67.3636</ele>
        <time>1970-01-01T01:00:00Z</time>
      </trkpt>
      <trkpt lat="58.989771" lon="16.034382">
        <ele>67.6364</ele>
        <time>1970-01-01T01:00:00Z</time>
      </trkpt>
      <trkpt lat="58.989855" lon="16.034316">
        <ele>67.9091</ele>
        <time>1970-01-01T01:00:00Z</time>
      </trkpt>
      <trkpt lat="58.989908" lon="16.034192">
        <ele>68.2727</ele>
        <time>1970-01-01T01:00:00Z</time>
      </trkpt>
      <trkpt lat="58.989975" lon="16.034094">
        <ele>68.6364</ele>
        <time>1970-01-01T01:00:00Z</time>
      </trkpt>
      <trkpt lat="58.990029" lon="16.033953">
        <ele>69</ele>
        <time>1970-01-01T01:00:00Z</time>
      </trkpt>
      <trkpt lat="58.990042" lon="16.033798">
        <ele>69.2727</ele>
        <time>1970-01-01T01:00:00Z</time>
      </trkpt>
      <trkpt lat="58.990093" lon="16.033639">
        <ele>69.5455</ele>
        <time>1970-01-01T01:00:00Z</time>
      </trkpt>
      <trkpt lat="58.990121" lon="16.033484">
        <ele>69.8182</ele>
        <time>1970-01-01T01:00:00Z</time>
      </trkpt>
      <trkpt lat="58.990154" lon="16.033317">
        <ele>70</ele>
        <time>1970-01-01T01:00:00Z</time>
      </trkpt>
      <trkpt lat="58.990199" lon="16.033165">
        <ele>70.0909</ele>
        <time>1970-01-01T01:00:00Z</time>
      </trkpt>
      <trkpt lat="58.990233" lon="16.033004">
        <ele>70.0909</ele>
        <time>1970-01-01T01:00:00Z</time>
      </trkpt>
      <trkpt lat="58.990263" lon="16.032856">
        <ele>70.1818</ele>
        <time>1970-01-01T01:00:00Z</time>
      </trkpt>
      <trkpt lat="58.990313" lon="16.032726">
        <ele>70.1818</ele>
        <time>1970-01-01T01:00:00Z</time>
      </trkpt>
      <trkpt lat="58.990378" lon="16.032619">
        <ele>70.0909</ele>
        <time>1970-01-01T01:00:00Z</time>
      </trkpt>
      <trkpt lat="58.990442" lon="16.032507">
        <ele>70</ele>
        <time>1970-01-01T01:00:00Z</time>
      </trkpt>
      <trkpt lat="58.990499" lon="16.032358">
        <ele>69.8182</ele>
        <time>1970-01-01T01:00:00Z</time>
      </trkpt>
      <trkpt lat="58.990542" lon="16.032207">
        <ele>69.6364</ele>
        <time>1970-01-01T01:00:00Z</time>
      </trkpt>
      <trkpt lat="58.990594" lon="16.032073">
        <ele>69.3636</ele>
        <time>1970-01-01T01:00:00Z</time>
      </trkpt>
      <trkpt lat="58.990665" lon="16.031976">
        <ele>69.0909</ele>
        <time>1970-01-01T01:00:00Z</time>
      </trkpt>
      <trkpt lat="58.990715" lon="16.031826">
        <ele>68.8182</ele>
        <time>1970-01-01T01:00:00Z</time>
      </trkpt>
      <trkpt lat="58.990758" lon="16.031688">
        <ele>68.7273</ele>
        <time>1970-01-01T01:00:00Z</time>
      </trkpt>
      <trkpt lat="58.990833" lon="16.03158">
        <ele>68.6364</ele>
        <time>1970-01-01T01:00:00Z</time>
      </trkpt>
      <trkpt lat="58.990894" lon="16.031448">
        <ele>68.5455</ele>
        <time>1970-01-01T01:00:00Z</time>
      </trkpt>
      <trkpt lat="58.990949" lon="16.031285">
        <ele>68.5455</ele>
        <time>1970-01-01T01:00:00Z</time>
      </trkpt>
      <trkpt lat="58.99102" lon="16.031204">
        <ele>68.4545</ele>
        <time>1970-01-01T01:00:00Z</time>
      </trkpt>
      <trkpt lat="58.991088" lon="16.031101">
        <ele>68.3636</ele>
        <time>1970-01-01T01:00:00Z</time>
      </trkpt>
      <trkpt lat="58.991175" lon="16.031056">
        <ele>68.3636</ele>
        <time>1970-01-01T01:00:00Z</time>
      </trkpt>
      <trkpt lat="58.99125" lon="16.030961">
        <ele>68.2727</ele>
        <time>1970-01-01T01:00:00Z</time>
      </trkpt>
      <trkpt lat="58.991316" lon="16.030836">
        <ele>68.0909</ele>
        <time>1970-01-01T01:00:00Z</time>
      </trkpt>
      <trkpt lat="58.991398" lon="16.030745">
        <ele>67.9091</ele>
        <time>1970-01-01T01:00:00Z</time>
      </trkpt>
      <trkpt lat="58.991461" lon="16.030627">
        <ele>67.7273</ele>
        <time>1970-01-01T01:00:00Z</time>
      </trkpt>
      <trkpt lat="58.991522" lon="16.0305">
        <ele>67.4545</ele>
        <time>1970-01-01T01:00:00Z</time>
      </trkpt>
      <trkpt lat="58.991552" lon="16.030352">
        <ele>67.0909</ele>
        <time>1970-01-01T01:00:00Z</time>
      </trkpt>
      <trkpt lat="58.991579" lon="16.030195">
        <ele>66.7273</ele>
        <time>1970-01-01T01:00:00Z</time>
      </trkpt>
      <trkpt lat="58.991637" lon="16.030078">
        <ele>66.3636</ele>
        <time>1970-01-01T01:00:00Z</time>
      </trkpt>
      <trkpt lat="58.991705" lon="16.029968">
        <ele>66.0909</ele>
        <time>1970-01-01T01:00:00Z</time>
      </trkpt>
      <trkpt lat="58.99178" lon="16.029905">
        <ele>65.8182</ele>
        <time>1970-01-01T01:00:00Z</time>
      </trkpt>
      <trkpt lat="58.991857" lon="16.029832">
        <ele>65.5455</ele>
        <time>1970-01-01T01:00:00Z</time>
      </trkpt>
      <trkpt lat="58.99194" lon="16.02976">
        <ele>65.3636</ele>
        <time>1970-01-01T01:00:00Z</time>
      </trkpt>
      <trkpt lat="58.992024" lon="16.029722">
        <ele>65.2727</ele>
        <time>1970-01-01T01:00:00Z</time>
      </trkpt>
      <trkpt lat="58.992111" lon="16.029702">
        <ele>65.1818</ele>
        <time>1970-01-01T01:00:00Z</time>
      </trkpt>
      <trkpt lat="58.992199" lon="16.02967">
        <ele>65.1818</ele>
        <time>1970-01-01T01:00:00Z</time>
      </trkpt>
      <trkpt lat="58.992265" lon="16.029546">
        <ele>65.1818</ele>
        <time>1970-01-01T01:00:00Z</time>
      </trkpt>
      <trkpt lat="58.992322" lon="16.029434">
        <ele>65.3636</ele>
        <time>1970-01-01T01:00:00Z</time>
      </trkpt>
      <trkpt lat="58.992405" lon="16.02937">
        <ele>65.6364</ele>
        <time>1970-01-01T01:00:00Z</time>
      </trkpt>
      <trkpt lat="58.992487" lon="16.029313">
        <ele>65.9091</ele>
        <time>1970-01-01T01:00:00Z</time>
      </trkpt>
      <trkpt lat="58.992562" lon="16.029203">
        <ele>66.2727</ele>
        <time>1970-01-01T01:00:00Z</time>
      </trkpt>
      <trkpt lat="58.99263" lon="16.029115">
        <ele>66.7273</ele>
        <time>1970-01-01T01:00:00Z</time>
      </trkpt>
      <trkpt lat="58.992697" lon="16.029001">
        <ele>67.1818</ele>
        <time>1970-01-01T01:00:00Z</time>
      </trkpt>
      <trkpt lat="58.992778" lon="16.028925">
        <ele>67.6364</ele>
        <time>1970-01-01T01:00:00Z</time>
      </trkpt>
      <trkpt lat="58.992843" lon="16.028825">
        <ele>68.1818</ele>
        <time>1970-01-01T01:00:00Z</time>
      </trkpt>
      <trkpt lat="58.992914" lon="16.028725">
        <ele>68.7273</ele>
        <time>1970-01-01T01:00:00Z</time>
      </trkpt>
      <trkpt lat="58.993003" lon="16.028668">
        <ele>69.0909</ele>
        <time>1970-01-01T01:00:00Z</time>
      </trkpt>
      <trkpt lat="58.993087" lon="16.028595">
        <ele>69.4545</ele>
        <time>1970-01-01T01:00:00Z</time>
      </trkpt>
      <trkpt lat="58.993162" lon="16.028526">
        <ele>69.7273</ele>
        <time>1970-01-01T01:00:00Z</time>
      </trkpt>
      <trkpt lat="58.993237" lon="16.028451">
        <ele>69.9091</ele>
        <time>1970-01-01T01:00:00Z</time>
      </trkpt>
      <trkpt lat="58.993291" lon="16.028329">
        <ele>70.0909</ele>
        <time>1970-01-01T01:00:00Z</time>
      </trkpt>
      <trkpt lat="58.993364" lon="16.028235">
        <ele>70.1818</ele>
        <time>1970-01-01T01:00:00Z</time>
      </trkpt>
      <trkpt lat="58.99343" lon="16.02814">
        <ele>70.1818</ele>
        <time>1970-01-01T01:00:00Z</time>
      </trkpt>
      <trkpt lat="58.993506" lon="16.028068">
        <ele>70.0909</ele>
        <time>1970-01-01T01:00:00Z</time>
      </trkpt>
      <trkpt lat="58.993587" lon="16.027989">
        <ele>70.0909</ele>
        <time>1970-01-01T01:00:00Z</time>
      </trkpt>
      <trkpt lat="58.993662" lon="16.027885">
        <ele>70</ele>
        <time>1970-01-01T01:00:00Z</time>
      </trkpt>
      <trkpt lat="58.993735" lon="16.027792">
        <ele>69.9091</ele>
        <time>1970-01-01T01:00:00Z</time>
      </trkpt>
      <trkpt lat="58.993815" lon="16.027754">
        <ele>69.9091</ele>
        <time>1970-01-01T01:00:00Z</time>
      </trkpt>
      <trkpt lat="58.993895" lon="16.027693">
        <ele>70</ele>
        <time>1970-01-01T01:00:00Z</time>
      </trkpt>
      <trkpt lat="58.993978" lon="16.027648">
        <ele>70.0909</ele>
        <time>1970-01-01T01:00:00Z</time>
      </trkpt>
      <trkpt lat="58.994059" lon="16.027607">
        <ele>70.1818</ele>
        <time>1970-01-01T01:00:00Z</time>
      </trkpt>
      <trkpt lat="58.99414" lon="16.027556">
        <ele>70.2727</ele>
        <time>1970-01-01T01:00:00Z</time>
      </trkpt>
      <trkpt lat="58.994232" lon="16.027528">
        <ele>70.4545</ele>
        <time>1970-01-01T01:00:00Z</time>
      </trkpt>
      <trkpt lat="58.994317" lon="16.027488">
        <ele>70.6364</ele>
        <time>1970-01-01T01:00:00Z</time>
      </trkpt>
      <trkpt lat="58.994404" lon="16.027459">
        <ele>70.9091</ele>
        <time>1970-01-01T01:00:00Z</time>
      </trkpt>
      <trkpt lat="58.994492" lon="16.027416">
        <ele>71</ele>
        <time>1970-01-01T01:00:00Z</time>
      </trkpt>
      <trkpt lat="58.994579" lon="16.027357">
        <ele>71.0909</ele>
        <time>1970-01-01T01:00:00Z</time>
      </trkpt>
      <trkpt lat="58.994662" lon="16.027349">
        <ele>71.1818</ele>
        <time>1970-01-01T01:00:00Z</time>
      </trkpt>
      <trkpt lat="58.994745" lon="16.027402">
        <ele>71.1818</ele>
        <time>1970-01-01T01:00:00Z</time>
      </trkpt>
      <trkpt lat="58.994832" lon="16.027393">
        <ele>71.0909</ele>
        <time>1970-01-01T01:00:00Z</time>
      </trkpt>
      <trkpt lat="58.994912" lon="16.027363">
        <ele>71</ele>
        <time>1970-01-01T01:00:00Z</time>
      </trkpt>
      <trkpt lat="58.995" lon="16.027313">
        <ele>70.9091</ele>
        <time>1970-01-01T01:00:00Z</time>
      </trkpt>
      <trkpt lat="58.995077" lon="16.027265">
        <ele>70.7273</ele>
        <time>1970-01-01T01:00:00Z</time>
      </trkpt>
      <trkpt lat="58.995174" lon="16.027224">
        <ele>70.4545</ele>
        <time>1970-01-01T01:00:00Z</time>
      </trkpt>
      <trkpt lat="58.995259" lon="16.02714">
        <ele>70.1818</ele>
        <time>1970-01-01T01:00:00Z</time>
      </trkpt>
      <trkpt lat="58.995345" lon="16.027071">
        <ele>69.9091</ele>
        <time>1970-01-01T01:00:00Z</time>
      </trkpt>
      <trkpt lat="58.995415" lon="16.026983">
        <ele>69.7273</ele>
        <time>1970-01-01T01:00:00Z</time>
      </trkpt>
      <trkpt lat="58.995481" lon="16.02687">
        <ele>69.5455</ele>
        <time>1970-01-01T01:00:00Z</time>
      </trkpt>
      <trkpt lat="58.995511" lon="16.026724">
        <ele>69.3636</ele>
        <time>1970-01-01T01:00:00Z</time>
      </trkpt>
      <trkpt lat="58.99554" lon="16.026554">
        <ele>69.2727</ele>
        <time>1970-01-01T01:00:00Z</time>
      </trkpt>
      <trkpt lat="58.995562" lon="16.026392">
        <ele>69.1818</ele>
        <time>1970-01-01T01:00:00Z</time>
      </trkpt>
      <trkpt lat="58.995602" lon="16.026242">
        <ele>69.0909</ele>
        <time>1970-01-01T01:00:00Z</time>
      </trkpt>
      <trkpt lat="58.995613" lon="16.026086">
        <ele>69</ele>
        <time>1970-01-01T01:00:00Z</time>
      </trkpt>
      <trkpt lat="58.995657" lon="16.025941">
        <ele>69</ele>
        <time>1970-01-01T01:00:00Z</time>
      </trkpt>
      <trkpt lat="58.995729" lon="16.025865">
        <ele>69</ele>
        <time>1970-01-01T01:00:00Z</time>
      </trkpt>
      <trkpt lat="58.995795" lon="16.025759">
        <ele>69</ele>
        <time>1970-01-01T01:00:00Z</time>
      </trkpt>
      <trkpt lat="58.995874" lon="16.025654">
        <ele>69</ele>
        <time>1970-01-01T01:00:00Z</time>
      </trkpt>
      <trkpt lat="58.995936" lon="16.025533">
        <ele>69.0909</ele>
        <time>1970-01-01T01:00:00Z</time>
      </trkpt>
      <trkpt lat="58.995986" lon="16.025405">
        <ele>69.1818</ele>
        <time>1970-01-01T01:00:00Z</time>
      </trkpt>
      <trkpt lat="58.99603" lon="16.025264">
        <ele>69.2727</ele>
        <time>1970-01-01T01:00:00Z</time>
      </trkpt>
      <trkpt lat="58.996112" lon="16.025213">
        <ele>69.3636</ele>
        <time>1970-01-01T01:00:00Z</time>
      </trkpt>
      <trkpt lat="58.996179" lon="16.025084">
        <ele>69.4545</ele>
        <time>1970-01-01T01:00:00Z</time>
      </trkpt>
      <trkpt lat="58.996232" lon="16.024942">
        <ele>69.3636</ele>
        <time>1970-01-01T01:00:00Z</time>
      </trkpt>
      <trkpt lat="58.996282" lon="16.02479">
        <ele>69.1818</ele>
        <time>1970-01-01T01:00:00Z</time>
      </trkpt>
      <trkpt lat="58.99631" lon="16.024624">
        <ele>68.9091</ele>
        <time>1970-01-01T01:00:00Z</time>
      </trkpt>
      <trkpt lat="58.996348" lon="16.024481">
        <ele>68.5455</ele>
        <time>1970-01-01T01:00:00Z</time>
      </trkpt>
      <trkpt lat="58.996413" lon="16.02438">
        <ele>68.0909</ele>
        <time>1970-01-01T01:00:00Z</time>
      </trkpt>
      <trkpt lat="58.996463" lon="16.024233">
        <ele>67.5455</ele>
        <time>1970-01-01T01:00:00Z</time>
      </trkpt>
      <trkpt lat="58.996506" lon="16.02407">
        <ele>66.9091</ele>
        <time>1970-01-01T01:00:00Z</time>
      </trkpt>
      <trkpt lat="58.996524" lon="16.023912">
        <ele>66.1818</ele>
        <time>1970-01-01T01:00:00Z</time>
      </trkpt>
      <trkpt lat="58.996565" lon="16.023776">
        <ele>65.4545</ele>
        <time>1970-01-01T01:00:00Z</time>
      </trkpt>
      <trkpt lat="58.996575" lon="16.023608">
        <ele>64.7273</ele>
        <time>1970-01-01T01:00:00Z</time>
      </trkpt>
      <trkpt lat="58.996598" lon="16.023441">
        <ele>64</ele>
        <time>1970-01-01T01:00:00Z</time>
      </trkpt>
      <trkpt lat="58.996612" lon="16.023261">
        <ele>63.4545</ele>
        <time>1970-01-01T01:00:00Z</time>
      </trkpt>
      <trkpt lat="58.996642" lon="16.023112">
        <ele>63</ele>
        <time>1970-01-01T01:00:00Z</time>
      </trkpt>
      <trkpt lat="58.996687" lon="16.022967">
        <ele>62.5455</ele>
        <time>1970-01-01T01:00:00Z</time>
      </trkpt>
      <trkpt lat="58.996746" lon="16.022854">
        <ele>62.1818</ele>
        <time>1970-01-01T01:00:00Z</time>
      </trkpt>
      <trkpt lat="58.996793" lon="16.022705">
        <ele>61.8182</ele>
        <time>1970-01-01T01:00:00Z</time>
      </trkpt>
      <trkpt lat="58.996815" lon="16.022528">
        <ele>61.5455</ele>
        <time>1970-01-01T01:00:00Z</time>
      </trkpt>
      <trkpt lat="58.99683" lon="16.022362">
        <ele>61.2727</ele>
        <time>1970-01-01T01:00:00Z</time>
      </trkpt>
      <trkpt lat="58.996845" lon="16.022187">
        <ele>61</ele>
        <time>1970-01-01T01:00:00Z</time>
      </trkpt>
      <trkpt lat="58.996864" lon="16.022005">
        <ele>60.7273</ele>
        <time>1970-01-01T01:00:00Z</time>
      </trkpt>
      <trkpt lat="58.996891" lon="16.021857">
        <ele>60.4545</ele>
        <time>1970-01-01T01:00:00Z</time>
      </trkpt>
      <trkpt lat="58.99694" lon="16.021718">
        <ele>60.1818</ele>
        <time>1970-01-01T01:00:00Z</time>
      </trkpt>
      <trkpt lat="58.996971" lon="16.021563">
        <ele>59.9091</ele>
        <time>1970-01-01T01:00:00Z</time>
      </trkpt>
      <trkpt lat="58.996995" lon="16.021412">
        <ele>59.6364</ele>
        <time>1970-01-01T01:00:00Z</time>
      </trkpt>
      <trkpt lat="58.997019" lon="16.02126">
        <ele>59.4545</ele>
        <time>1970-01-01T01:00:00Z</time>
      </trkpt>
      <trkpt lat="58.997059" lon="16.021122">
        <ele>59.2727</ele>
        <time>1970-01-01T01:00:00Z</time>
      </trkpt>
      <trkpt lat="58.99712" lon="16.021009">
        <ele>59.1818</ele>
        <time>1970-01-01T01:00:00Z</time>
      </trkpt>
      <trkpt lat="58.997151" lon="16.020858">
        <ele>59.0909</ele>
        <time>1970-01-01T01:00:00Z</time>
      </trkpt>
      <trkpt lat="58.997184" lon="16.020714">
        <ele>59</ele>
        <time>1970-01-01T01:00:00Z</time>
      </trkpt>
      <trkpt lat="58.997222" lon="16.02056">
        <ele>59</ele>
        <time>1970-01-01T01:00:00Z</time>
      </trkpt>
      <trkpt lat="58.99728" lon="16.020431">
        <ele>59</ele>
        <time>1970-01-01T01:00:00Z</time>
      </trkpt>
      <trkpt lat="58.997326" lon="16.020297">
        <ele>59</ele>
        <time>1970-01-01T01:00:00Z</time>
      </trkpt>
      <trkpt lat="58.997367" lon="16.020159">
        <ele>58.9091</ele>
        <time>1970-01-01T01:00:00Z</time>
      </trkpt>
      <trkpt lat="58.99741" lon="16.020014">
        <ele>58.8182</ele>
        <time>1970-01-01T01:00:00Z</time>
      </trkpt>
      <trkpt lat="58.997458" lon="16.019869">
        <ele>58.7273</ele>
        <time>1970-01-01T01:00:00Z</time>
      </trkpt>
      <trkpt lat="58.9975" lon="16.019708">
        <ele>58.5455</ele>
        <time>1970-01-01T01:00:00Z</time>
      </trkpt>
      <trkpt lat="58.997532" lon="16.019542">
        <ele>58.3636</ele>
        <time>1970-01-01T01:00:00Z</time>
      </trkpt>
      <trkpt lat="58.997553" lon="16.019378">
        <ele>58.0909</ele>
        <time>1970-01-01T01:00:00Z</time>
      </trkpt>
      <trkpt lat="58.99756" lon="16.019208">
        <ele>57.7273</ele>
        <time>1970-01-01T01:00:00Z</time>
      </trkpt>
      <trkpt lat="58.99755" lon="16.019043">
        <ele>57.2727</ele>
        <time>1970-01-01T01:00:00Z</time>
      </trkpt>
      <trkpt lat="58.997547" lon="16.01886">
        <ele>56.8182</ele>
        <time>1970-01-01T01:00:00Z</time>
      </trkpt>
      <trkpt lat="58.997533" lon="16.018689">
        <ele>56.2727</ele>
        <time>1970-01-01T01:00:00Z</time>
      </trkpt>
      <trkpt lat="58.997503" lon="16.018534">
        <ele>55.7273</ele>
        <time>1970-01-01T01:00:00Z</time>
      </trkpt>
      <trkpt lat="58.997464" lon="16.018374">
        <ele>55.2727</ele>
        <time>1970-01-01T01:00:00Z</time>
      </trkpt>
      <trkpt lat="58.997413" lon="16.018224">
        <ele>54.8182</ele>
        <time>1970-01-01T01:00:00Z</time>
      </trkpt>
      <trkpt lat="58.99736" lon="16.018097">
        <ele>54.3636</ele>
        <time>1970-01-01T01:00:00Z</time>
      </trkpt>
      <trkpt lat="58.997289" lon="16.017986">
        <ele>54</ele>
        <time>1970-01-01T01:00:00Z</time>
      </trkpt>
      <trkpt lat="58.997206" lon="16.017905">
        <ele>53.7273</ele>
        <time>1970-01-01T01:00:00Z</time>
      </trkpt>
      <trkpt lat="58.997126" lon="16.017827">
        <ele>53.5455</ele>
        <time>1970-01-01T01:00:00Z</time>
      </trkpt>
      <trkpt lat="58.997039" lon="16.017794">
        <ele>53.4545</ele>
        <time>1970-01-01T01:00:00Z</time>
      </trkpt>
      <trkpt lat="58.996955" lon="16.017777">
        <ele>53.5455</ele>
        <time>1970-01-01T01:00:00Z</time>
      </trkpt>
      <trkpt lat="58.996874" lon="16.017731">
        <ele>53.6364</ele>
        <time>1970-01-01T01:00:00Z</time>
      </trkpt>
      <trkpt lat="58.996783" lon="16.017696">
        <ele>53.9091</ele>
        <time>1970-01-01T01:00:00Z</time>
      </trkpt>
      <trkpt lat="58.996709" lon="16.01762">
        <ele>54.2727</ele>
        <time>1970-01-01T01:00:00Z</time>
      </trkpt>
      <trkpt lat="58.996643" lon="16.017524">
        <ele>54.6364</ele>
        <time>1970-01-01T01:00:00Z</time>
      </trkpt>
      <trkpt lat="58.996576" lon="16.017414">
        <ele>55</ele>
        <time>1970-01-01T01:00:00Z</time>
      </trkpt>
      <trkpt lat="58.996503" lon="16.017307">
        <ele>55.3636</ele>
        <time>1970-01-01T01:00:00Z</time>
      </trkpt>
      <trkpt lat="58.996446" lon="16.017177">
        <ele>55.7273</ele>
        <time>1970-01-01T01:00:00Z</time>
      </trkpt>
      <trkpt lat="58.9964" lon="16.017046">
        <ele>56.0909</ele>
        <time>1970-01-01T01:00:00Z</time>
      </trkpt>
      <trkpt lat="58.996358" lon="16.016897">
        <ele>56.4545</ele>
        <time>1970-01-01T01:00:00Z</time>
      </trkpt>
      <trkpt lat="58.996322" lon="16.016752">
        <ele>56.8182</ele>
        <time>1970-01-01T01:00:00Z</time>
      </trkpt>
      <trkpt lat="58.99628" lon="16.0166">
        <ele>57.0909</ele>
        <time>1970-01-01T01:00:00Z</time>
      </trkpt>
      <trkpt lat="58.996225" lon="16.016453">
        <ele>57.3636</ele>
        <time>1970-01-01T01:00:00Z</time>
      </trkpt>
      <trkpt lat="58.996183" lon="16.016315">
        <ele>57.5455</ele>
        <time>1970-01-01T01:00:00Z</time>
      </trkpt>
      <trkpt lat="58.99613" lon="16.016177">
        <ele>57.7273</ele>
        <time>1970-01-01T01:00:00Z</time>
      </trkpt>
      <trkpt lat="58.996081" lon="16.016024">
        <ele>57.9091</ele>
        <time>1970-01-01T01:00:00Z</time>
      </trkpt>
      <trkpt lat="58.996056" lon="16.015842">
        <ele>58.1818</ele>
        <time>1970-01-01T01:00:00Z</time>
      </trkpt>
      <trkpt lat="58.996024" lon="16.015681">
        <ele>58.4545</ele>
        <time>1970-01-01T01:00:00Z</time>
      </trkpt>
      <trkpt lat="58.996006" lon="16.015523">
        <ele>58.8182</ele>
        <time>1970-01-01T01:00:00Z</time>
      </trkpt>
      <trkpt lat="58.996005" lon="16.015356">
        <ele>59.0909</ele>
        <time>1970-01-01T01:00:00Z</time>
      </trkpt>
      <trkpt lat="58.995976" lon="16.015187">
        <ele>59.3636</ele>
        <time>1970-01-01T01:00:00Z</time>
      </trkpt>
      <trkpt lat="58.995946" lon="16.01504">
        <ele>59.6364</ele>
        <time>1970-01-01T01:00:00Z</time>
      </trkpt>
      <trkpt lat="58.995928" lon="16.014879">
        <ele>59.9091</ele>
        <time>1970-01-01T01:00:00Z</time>
      </trkpt>
      <trkpt lat="58.995901" lon="16.014716">
        <ele>60.1818</ele>
        <time>1970-01-01T01:00:00Z</time>
      </trkpt>
      <trkpt lat="58.995885" lon="16.014542">
        <ele>60.4545</ele>
        <time>1970-01-01T01:00:00Z</time>
      </trkpt>
      <trkpt lat="58.995922" lon="16.014402">
        <ele>60.6364</ele>
        <time>1970-01-01T01:00:00Z</time>
      </trkpt>
      <trkpt lat="58.995971" lon="16.014257">
        <ele>60.9091</ele>
        <time>1970-01-01T01:00:00Z</time>
      </trkpt>
      <trkpt lat="58.996041" lon="16.014176">
        <ele>61.0909</ele>
        <time>1970-01-01T01:00:00Z</time>
      </trkpt>
      <trkpt lat="58.996093" lon="16.014042">
        <ele>61.3636</ele>
        <time>1970-01-01T01:00:00Z</time>
      </trkpt>
      <trkpt lat="58.996166" lon="16.013948">
        <ele>61.5455</ele>
        <time>1970-01-01T01:00:00Z</time>
      </trkpt>
      <trkpt lat="58.996205" lon="16.01381">
        <ele>61.7273</ele>
        <time>1970-01-01T01:00:00Z</time>
      </trkpt>
      <trkpt lat="58.996209" lon="16.013641">
        <ele>62</ele>
        <time>1970-01-01T01:00:00Z</time>
      </trkpt>
      <trkpt lat="58.996218" lon="16.013473">
        <ele>62.2727</ele>
        <time>1970-01-01T01:00:00Z</time>
      </trkpt>
      <trkpt lat="58.99625" lon="16.013315">
        <ele>62.6364</ele>
        <time>1970-01-01T01:00:00Z</time>
      </trkpt>
      <trkpt lat="58.996292" lon="16.013171">
        <ele>63.0909</ele>
        <time>1970-01-01T01:00:00Z</time>
      </trkpt>
      <trkpt lat="58.99631" lon="16.01301">
        <ele>63.5455</ele>
        <time>1970-01-01T01:00:00Z</time>
      </trkpt>
      <trkpt lat="58.996322" lon="16.012853">
        <ele>64.0909</ele>
        <time>1970-01-01T01:00:00Z</time>
      </trkpt>
      <trkpt lat="58.996334" lon="16.012673">
        <ele>64.5455</ele>
        <time>1970-01-01T01:00:00Z</time>
      </trkpt>
      <trkpt lat="58.996325" lon="16.012502">
        <ele>65.0909</ele>
        <time>1970-01-01T01:00:00Z</time>
      </trkpt>
      <trkpt lat="58.996336" lon="16.012315">
        <ele>65.6364</ele>
        <time>1970-01-01T01:00:00Z</time>
      </trkpt>
      <trkpt lat="58.996346" lon="16.012138">
        <ele>66.2727</ele>
        <time>1970-01-01T01:00:00Z</time>
      </trkpt>
      <trkpt lat="58.996346" lon="16.011967">
        <ele>66.8182</ele>
        <time>1970-01-01T01:00:00Z</time>
      </trkpt>
      <trkpt lat="58.99635" lon="16.011805">
        <ele>67.2727</ele>
        <time>1970-01-01T01:00:00Z</time>
      </trkpt>
      <trkpt lat="58.996353" lon="16.01162">
        <ele>67.8182</ele>
        <time>1970-01-01T01:00:00Z</time>
      </trkpt>
      <trkpt lat="58.996361" lon="16.011438">
        <ele>68.2727</ele>
        <time>1970-01-01T01:00:00Z</time>
      </trkpt>
      <trkpt lat="58.996383" lon="16.011279">
        <ele>68.6364</ele>
        <time>1970-01-01T01:00:00Z</time>
      </trkpt>
      <trkpt lat="58.996421" lon="16.011128">
        <ele>69</ele>
        <time>1970-01-01T01:00:00Z</time>
      </trkpt>
      <trkpt lat="58.996469" lon="16.010995">
        <ele>69.1818</ele>
        <time>1970-01-01T01:00:00Z</time>
      </trkpt>
      <trkpt lat="58.996434" lon="16.010836">
        <ele>69.4545</ele>
        <time>1970-01-01T01:00:00Z</time>
      </trkpt>
      <trkpt lat="58.996412" lon="16.010667">
        <ele>69.6364</ele>
        <time>1970-01-01T01:00:00Z</time>
      </trkpt>
      <trkpt lat="58.996402" lon="16.010507">
        <ele>69.8182</ele>
        <time>1970-01-01T01:00:00Z</time>
      </trkpt>
      <trkpt lat="58.996363" lon="16.010368">
        <ele>69.9091</ele>
        <time>1970-01-01T01:00:00Z</time>
      </trkpt>
      <trkpt lat="58.996344" lon="16.01021">
        <ele>70.1818</ele>
        <time>1970-01-01T01:00:00Z</time>
      </trkpt>
      <trkpt lat="58.996276" lon="16.010099">
        <ele>70.4545</ele>
        <time>1970-01-01T01:00:00Z</time>
      </trkpt>
      <trkpt lat="58.996215" lon="16.009975">
        <ele>70.7273</ele>
        <time>1970-01-01T01:00:00Z</time>
      </trkpt>
      <trkpt lat="58.996154" lon="16.009855">
        <ele>71</ele>
        <time>1970-01-01T01:00:00Z</time>
      </trkpt>
      <trkpt lat="58.996123" lon="16.009709">
        <ele>71.2727</ele>
        <time>1970-01-01T01:00:00Z</time>
      </trkpt>
      <trkpt lat="58.996076" lon="16.00955">
        <ele>71.6364</ele>
        <time>1970-01-01T01:00:00Z</time>
      </trkpt>
      <trkpt lat="58.996011" lon="16.009408">
        <ele>72.0909</ele>
        <time>1970-01-01T01:00:00Z</time>
      </trkpt>
      <trkpt lat="58.995939" lon="16.009303">
        <ele>72.5455</ele>
        <time>1970-01-01T01:00:00Z</time>
      </trkpt>
      <trkpt lat="58.995871" lon="16.009207">
        <ele>73</ele>
        <time>1970-01-01T01:00:00Z</time>
      </trkpt>
      <trkpt lat="58.99579" lon="16.00912">
        <ele>73.2727</ele>
        <time>1970-01-01T01:00:00Z</time>
      </trkpt>
      <trkpt lat="58.995701" lon="16.009062">
        <ele>73.5455</ele>
        <time>1970-01-01T01:00:00Z</time>
      </trkpt>
      <trkpt lat="58.995615" lon="16.009">
        <ele>73.7273</ele>
        <time>1970-01-01T01:00:00Z</time>
      </trkpt>
      <trkpt lat="58.995534" lon="16.008958">
        <ele>73.9091</ele>
        <time>1970-01-01T01:00:00Z</time>
      </trkpt>
      <trkpt lat="58.995455" lon="16.008887">
        <ele>73.9091</ele>
        <time>1970-01-01T01:00:00Z</time>
      </trkpt>
      <trkpt lat="58.995388" lon="16.008767">
        <ele>73.9091</ele>
        <time>1970-01-01T01:00:00Z</time>
      </trkpt>
      <trkpt lat="58.995328" lon="16.008647">
        <ele>73.8182</ele>
        <time>1970-01-01T01:00:00Z</time>
      </trkpt>
      <trkpt lat="58.995277" lon="16.008497">
        <ele>73.5455</ele>
        <time>1970-01-01T01:00:00Z</time>
      </trkpt>
      <trkpt lat="58.995211" lon="16.008406">
        <ele>73.2727</ele>
        <time>1970-01-01T01:00:00Z</time>
      </trkpt>
      <trkpt lat="58.99514" lon="16.008303">
        <ele>72.8182</ele>
        <time>1970-01-01T01:00:00Z</time>
      </trkpt>
      <trkpt lat="58.995075" lon="16.008173">
        <ele>72.3636</ele>
        <time>1970-01-01T01:00:00Z</time>
      </trkpt>
      <trkpt lat="58.995003" lon="16.008058">
        <ele>72</ele>
        <time>1970-01-01T01:00:00Z</time>
      </trkpt>
      <trkpt lat="58.994923" lon="16.007975">
        <ele>71.6364</ele>
        <time>1970-01-01T01:00:00Z</time>
      </trkpt>
      <trkpt lat="58.994853" lon="16.007869">
        <ele>71.2727</ele>
        <time>1970-01-01T01:00:00Z</time>
      </trkpt>
      <trkpt lat="58.994762" lon="16.007842">
        <ele>71</ele>
        <time>1970-01-01T01:00:00Z</time>
      </trkpt>
      <trkpt lat="58.994673" lon="16.007845">
        <ele>70.8182</ele>
        <time>1970-01-01T01:00:00Z</time>
      </trkpt>
      <trkpt lat="58.99459" lon="16.007885">
        <ele>70.7273</ele>
        <time>1970-01-01T01:00:00Z</time>
      </trkpt>
      <trkpt lat="58.994509" lon="16.007852">
        <ele>70.8182</ele>
        <time>1970-01-01T01:00:00Z</time>
      </trkpt>
      <trkpt lat="58.994434" lon="16.007776">
        <ele>71.0909</ele>
        <time>1970-01-01T01:00:00Z</time>
      </trkpt>
      <trkpt lat="58.99435" lon="16.007757">
        <ele>71.4545</ele>
        <time>1970-01-01T01:00:00Z</time>
      </trkpt>
      <trkpt lat="58.994268" lon="16.0077">
        <ele>72</ele>
        <time>1970-01-01T01:00:00Z</time>
      </trkpt>
      <trkpt lat="58.994187" lon="16.007655">
        <ele>72.6364</ele>
        <time>1970-01-01T01:00:00Z</time>
      </trkpt>
      <trkpt lat="58.994132" lon="16.007538">
        <ele>73.4545</ele>
        <time>1970-01-01T01:00:00Z</time>
      </trkpt>
      <trkpt lat="58.994079" lon="16.00741">
        <ele>74.2727</ele>
        <time>1970-01-01T01:00:00Z</time>
      </trkpt>
      <trkpt lat="58.994005" lon="16.007317">
        <ele>75.0909</ele>
        <time>1970-01-01T01:00:00Z</time>
      </trkpt>
      <trkpt lat="58.993925" lon="16.007231">
        <ele>75.8182</ele>
        <time>1970-01-01T01:00:00Z</time>
      </trkpt>
      <trkpt lat="58.993849" lon="16.007166">
        <ele>76.4545</ele>
        <time>1970-01-01T01:00:00Z</time>
      </trkpt>
      <trkpt lat="58.993774" lon="16.007078">
        <ele>77</ele>
        <time>1970-01-01T01:00:00Z</time>
      </trkpt>
      <trkpt lat="58.993736" lon="16.006919">
        <ele>77.4545</ele>
        <time>1970-01-01T01:00:00Z</time>
      </trkpt>
      <trkpt lat="58.993704" lon="16.006741">
        <ele>77.8182</ele>
        <time>1970-01-01T01:00:00Z</time>
      </trkpt>
      <trkpt lat="58.993684" lon="16.006583">
        <ele>78</ele>
        <time>1970-01-01T01:00:00Z</time>
      </trkpt>
      <trkpt lat="58.993675" lon="16.006415">
        <ele>78.1818</ele>
        <time>1970-01-01T01:00:00Z</time>
      </trkpt>
      <trkpt lat="58.993665" lon="16.006252">
        <ele>78.2727</ele>
        <time>1970-01-01T01:00:00Z</time>
      </trkpt>
      <trkpt lat="58.993664" lon="16.006088">
        <ele>78.1818</ele>
        <time>1970-01-01T01:00:00Z</time>
      </trkpt>
      <trkpt lat="58.993663" lon="16.005909">
        <ele>78.0909</ele>
        <time>1970-01-01T01:00:00Z</time>
      </trkpt>
      <trkpt lat="58.993662" lon="16.005743">
        <ele>78.0909</ele>
        <time>1970-01-01T01:00:00Z</time>
      </trkpt>
      <trkpt lat="58.993632" lon="16.005579">
        <ele>78.1818</ele>
        <time>1970-01-01T01:00:00Z</time>
      </trkpt>
      <trkpt lat="58.993601" lon="16.005413">
        <ele>78.3636</ele>
        <time>1970-01-01T01:00:00Z</time>
      </trkpt>
      <trkpt lat="58.993572" lon="16.005265">
        <ele>78.5455</ele>
        <time>1970-01-01T01:00:00Z</time>
      </trkpt>
      <trkpt lat="58.993518" lon="16.005126">
        <ele>78.7273</ele>
        <time>1970-01-01T01:00:00Z</time>
      </trkpt>
      <trkpt lat="58.993457" lon="16.005002">
        <ele>78.9091</ele>
        <time>1970-01-01T01:00:00Z</time>
      </trkpt>
      <trkpt lat="58.993396" lon="16.004882">
        <ele>79.1818</ele>
        <time>1970-01-01T01:00:00Z</time>
      </trkpt>
      <trkpt lat="58.993338" lon="16.004758">
        <ele>79.3636</ele>
        <time>1970-01-01T01:00:00Z</time>
      </trkpt>
      <trkpt lat="58.993285" lon="16.004626">
        <ele>79.4545</ele>
        <time>1970-01-01T01:00:00Z</time>
      </trkpt>
      <trkpt lat="58.993237" lon="16.004473">
        <ele>79.4545</ele>
        <time>1970-01-01T01:00:00Z</time>
      </trkpt>
      <trkpt lat="58.993193" lon="16.004326">
        <ele>79.3636</ele>
        <time>1970-01-01T01:00:00Z</time>
      </trkpt>
      <trkpt lat="58.993166" lon="16.004168">
        <ele>79.0909</ele>
        <time>1970-01-01T01:00:00Z</time>
      </trkpt>
      <trkpt lat="58.99315" lon="16.003992">
        <ele>78.6364</ele>
        <time>1970-01-01T01:00:00Z</time>
      </trkpt>
      <trkpt lat="58.993128" lon="16.00383">
        <ele>78.0909</ele>
        <time>1970-01-01T01:00:00Z</time>
      </trkpt>
      <trkpt lat="58.993123" lon="16.003667">
        <ele>77.5455</ele>
        <time>1970-01-01T01:00:00Z</time>
      </trkpt>
      <trkpt lat="58.993103" lon="16.003505">
        <ele>77</ele>
        <time>1970-01-01T01:00:00Z</time>
      </trkpt>
      <trkpt lat="58.993084" lon="16.003346">
        <ele>76.5455</ele>
        <time>1970-01-01T01:00:00Z</time>
      </trkpt>
      <trkpt lat="58.9931" lon="16.003176">
        <ele>76.0909</ele>
        <time>1970-01-01T01:00:00Z</time>
      </trkpt>
      <trkpt lat="58.993133" lon="16.003027">
        <ele>75.7273</ele>
        <time>1970-01-01T01:00:00Z</time>
      </trkpt>
      <trkpt lat="58.993141" lon="16.002861">
        <ele>75.5455</ele>
        <time>1970-01-01T01:00:00Z</time>
      </trkpt>
      <trkpt lat="58.993114" lon="16.002707">
        <ele>75.5455</ele>
        <time>1970-01-01T01:00:00Z</time>
      </trkpt>
      <trkpt lat="58.993088" lon="16.002543">
        <ele>75.7273</ele>
        <time>1970-01-01T01:00:00Z</time>
      </trkpt>
      <trkpt lat="58.993052" lon="16.002373">
        <ele>76</ele>
        <time>1970-01-01T01:00:00Z</time>
      </trkpt>
      <trkpt lat="58.993004" lon="16.002232">
        <ele>76.3636</ele>
        <time>1970-01-01T01:00:00Z</time>
      </trkpt>
      <trkpt lat="58.992952" lon="16.002089">
        <ele>76.9091</ele>
        <time>1970-01-01T01:00:00Z</time>
      </trkpt>
      <trkpt lat="58.992901" lon="16.001925">
        <ele>77.5455</ele>
        <time>1970-01-01T01:00:00Z</time>
      </trkpt>
      <trkpt lat="58.992866" lon="16.001774">
        <ele>78.2727</ele>
        <time>1970-01-01T01:00:00Z</time>
      </trkpt>
      <trkpt lat="58.99279" lon="16.001678">
        <ele>79</ele>
        <time>1970-01-01T01:00:00Z</time>
      </trkpt>
      <trkpt lat="58.992708" lon="16.001614">
        <ele>79.7273</ele>
        <time>1970-01-01T01:00:00Z</time>
      </trkpt>
      <trkpt lat="58.992619" lon="16.001549">
        <ele>80.3636</ele>
        <time>1970-01-01T01:00:00Z</time>
      </trkpt>
      <trkpt lat="58.992541" lon="16.001499">
        <ele>80.9091</ele>
        <time>1970-01-01T01:00:00Z</time>
      </trkpt>
      <trkpt lat="58.992456" lon="16.001419">
        <ele>81.3636</ele>
        <time>1970-01-01T01:00:00Z</time>
      </trkpt>
      <trkpt lat="58.992399" lon="16.001296">
        <ele>81.7273</ele>
        <time>1970-01-01T01:00:00Z</time>
      </trkpt>
      <trkpt lat="58.992329" lon="16.001177">
        <ele>82.0909</ele>
        <time>1970-01-01T01:00:00Z</time>
      </trkpt>
      <trkpt lat="58.992253" lon="16.001106">
        <ele>82.4545</ele>
        <time>1970-01-01T01:00:00Z</time>
      </trkpt>
      <trkpt lat="58.992192" lon="16.000996">
        <ele>82.8182</ele>
        <time>1970-01-01T01:00:00Z</time>
      </trkpt>
      <trkpt lat="58.992134" lon="16.000866">
        <ele>83.0909</ele>
        <time>1970-01-01T01:00:00Z</time>
      </trkpt>
      <trkpt lat="58.992089" lon="16.000721">
        <ele>83.2727</ele>
        <time>1970-01-01T01:00:00Z</time>
      </trkpt>
      <trkpt lat="58.992053" lon="16.000566">
        <ele>83.4545</ele>
        <time>1970-01-01T01:00:00Z</time>
      </trkpt>
      <trkpt lat="58.992085" lon="16.000398">
        <ele>83.6364</ele>
        <time>1970-01-01T01:00:00Z</time>
      </trkpt>
      <trkpt lat="58.992087" lon="16.000239">
        <ele>83.8182</ele>
        <time>1970-01-01T01:00:00Z</time>
      </trkpt>
      <trkpt lat="58.992103" lon="16.000074">
        <ele>84</ele>
        <time>1970-01-01T01:00:00Z</time>
      </trkpt>
      <trkpt lat="58.992104" lon="15.999912">
        <ele>84.2727</ele>
        <time>1970-01-01T01:00:00Z</time>
      </trkpt>
      <trkpt lat="58.992102" lon="15.999729">
        <ele>84.5455</ele>
        <time>1970-01-01T01:00:00Z</time>
      </trkpt>
      <trkpt lat="58.992096" lon="15.999561">
        <ele>84.8182</ele>
        <time>1970-01-01T01:00:00Z</time>
      </trkpt>
      <trkpt lat="58.992111" lon="15.999403">
        <ele>85.0909</ele>
        <time>1970-01-01T01:00:00Z</time>
      </trkpt>
      <trkpt lat="58.992132" lon="15.999243">
        <ele>85.2727</ele>
        <time>1970-01-01T01:00:00Z</time>
      </trkpt>
      <trkpt lat="58.992119" lon="15.999068">
        <ele>85.3636</ele>
        <time>1970-01-01T01:00:00Z</time>
      </trkpt>
      <trkpt lat="58.992091" lon="15.998894">
        <ele>85.3636</ele>
        <time>1970-01-01T01:00:00Z</time>
      </trkpt>
      <trkpt lat="58.992048" lon="15.998752">
        <ele>85.2727</ele>
        <time>1970-01-01T01:00:00Z</time>
      </trkpt>
      <trkpt lat="58.992023" lon="15.998586">
        <ele>85.0909</ele>
        <time>1970-01-01T01:00:00Z</time>
      </trkpt>
      <trkpt lat="58.991994" lon="15.998433">
        <ele>84.8182</ele>
        <time>1970-01-01T01:00:00Z</time>
      </trkpt>
      <trkpt lat="58.991983" lon="15.998267">
        <ele>84.3636</ele>
        <time>1970-01-01T01:00:00Z</time>
      </trkpt>
      <trkpt lat="58.991966" lon="15.998096">
        <ele>83.7273</ele>
        <time>1970-01-01T01:00:00Z</time>
      </trkpt>
      <trkpt lat="58.991947" lon="15.997942">
        <ele>82.9091</ele>
        <time>1970-01-01T01:00:00Z</time>
      </trkpt>
      <trkpt lat="58.991921" lon="15.997791">
        <ele>82</ele>
        <time>1970-01-01T01:00:00Z</time>
      </trkpt>
      <trkpt lat="58.991895" lon="15.997625">
        <ele>81</ele>
        <time>1970-01-01T01:00:00Z</time>
      </trkpt>
      <trkpt lat="58.991857" lon="15.997462">
        <ele>79.9091</ele>
        <time>1970-01-01T01:00:00Z</time>
      </trkpt>
      <trkpt lat="58.99182" lon="15.997312">
        <ele>78.8182</ele>
        <time>1970-01-01T01:00:00Z</time>
      </trkpt>
      <trkpt lat="58.99177" lon="15.997168">
        <ele>77.8182</ele>
        <time>1970-01-01T01:00:00Z</time>
      </trkpt>
      <trkpt lat="58.991721" lon="15.997021">
        <ele>76.7273</ele>
        <time>1970-01-01T01:00:00Z</time>
      </trkpt>
      <trkpt lat="58.99166" lon="15.996892">
        <ele>75.7273</ele>
        <time>1970-01-01T01:00:00Z</time>
      </trkpt>
      <trkpt lat="58.991602" lon="15.996753">
        <ele>74.8182</ele>
        <time>1970-01-01T01:00:00Z</time>
      </trkpt>
      <trkpt lat="58.99155" lon="15.99662">
        <ele>74.1818</ele>
        <time>1970-01-01T01:00:00Z</time>
      </trkpt>
      <trkpt lat="58.991504" lon="15.996469">
        <ele>73.6364</ele>
        <time>1970-01-01T01:00:00Z</time>
      </trkpt>
      <trkpt lat="58.99146" lon="15.996322">
        <ele>73.1818</ele>
        <time>1970-01-01T01:00:00Z</time>
      </trkpt>
      <trkpt lat="58.991469" lon="15.99616">
        <ele>72.8182</ele>
        <time>1970-01-01T01:00:00Z</time>
      </trkpt>
      <trkpt lat="58.991474" lon="15.995994">
        <ele>72.4545</ele>
        <time>1970-01-01T01:00:00Z</time>
      </trkpt>
      <trkpt lat="58.991473" lon="15.995812">
        <ele>72.1818</ele>
        <time>1970-01-01T01:00:00Z</time>
      </trkpt>
      <trkpt lat="58.991462" lon="15.995628">
        <ele>72.0909</ele>
        <time>1970-01-01T01:00:00Z</time>
      </trkpt>
      <trkpt lat="58.991475" lon="15.995471">
        <ele>72</ele>
        <time>1970-01-01T01:00:00Z</time>
      </trkpt>
      <trkpt lat="58.991483" lon="15.995304">
        <ele>72</ele>
        <time>1970-01-01T01:00:00Z</time>
      </trkpt>
      <trkpt lat="58.991438" lon="15.995149">
        <ele>72</ele>
        <time>1970-01-01T01:00:00Z</time>
      </trkpt>
      <trkpt lat="58.991416" lon="15.994986">
        <ele>72</ele>
        <time>1970-01-01T01:00:00Z</time>
      </trkpt>
      <trkpt lat="58.991441" lon="15.994826">
        <ele>71.9091</ele>
        <time>1970-01-01T01:00:00Z</time>
      </trkpt>
      <trkpt lat="58.991493" lon="15.994684">
        <ele>71.8182</ele>
        <time>1970-01-01T01:00:00Z</time>
      </trkpt>
      <trkpt lat="58.991505" lon="15.994506">
        <ele>71.7273</ele>
        <time>1970-01-01T01:00:00Z</time>
      </trkpt>
      <trkpt lat="58.991503" lon="15.994321">
        <ele>71.6364</ele>
        <time>1970-01-01T01:00:00Z</time>
      </trkpt>
      <trkpt lat="58.991551" lon="15.994192">
        <ele>71.6364</ele>
        <time>1970-01-01T01:00:00Z</time>
      </trkpt>
      <trkpt lat="58.991642" lon="15.994209">
        <ele>71.6364</ele>
        <time>1970-01-01T01:00:00Z</time>
      </trkpt>
      <trkpt lat="58.991713" lon="15.99431">
        <ele>71.4545</ele>
        <time>1970-01-01T01:00:00Z</time>
      </trkpt>
      <trkpt lat="58.991789" lon="15.994377">
        <ele>71.2727</ele>
        <time>1970-01-01T01:00:00Z</time>
      </trkpt>
      <trkpt lat="58.991872" lon="15.994469">
        <ele>71</ele>
        <time>1970-01-01T01:00:00Z</time>
      </trkpt>
      <trkpt lat="58.991955" lon="15.994506">
        <ele>70.7273</ele>
        <time>1970-01-01T01:00:00Z</time>
      </trkpt>
      <trkpt lat="58.992048" lon="15.99453">
        <ele>70.3636</ele>
        <time>1970-01-01T01:00:00Z</time>
      </trkpt>
      <trkpt lat="58.992128" lon="15.994578">
        <ele>70</ele>
        <time>1970-01-01T01:00:00Z</time>
      </trkpt>
      <trkpt lat="58.992219" lon="15.994571">
        <ele>69.5455</ele>
        <time>1970-01-01T01:00:00Z</time>
      </trkpt>
      <trkpt lat="58.992302" lon="15.994566">
        <ele>69.1818</ele>
        <time>1970-01-01T01:00:00Z</time>
      </trkpt>
      <trkpt lat="58.992394" lon="15.994571">
        <ele>68.8182</ele>
        <time>1970-01-01T01:00:00Z</time>
      </trkpt>
      <trkpt lat="58.992475" lon="15.994604">
        <ele>68.5455</ele>
        <time>1970-01-01T01:00:00Z</time>
      </trkpt>
      <trkpt lat="58.992566" lon="15.994614">
        <ele>68.2727</ele>
        <time>1970-01-01T01:00:00Z</time>
      </trkpt>
      <trkpt lat="58.992648" lon="15.994546">
        <ele>68.0909</ele>
        <time>1970-01-01T01:00:00Z</time>
      </trkpt>
      <trkpt lat="58.992727" lon="15.994509">
        <ele>68</ele>
        <time>1970-01-01T01:00:00Z</time>
      </trkpt>
      <trkpt lat="58.992811" lon="15.994507">
        <ele>68.0909</ele>
        <time>1970-01-01T01:00:00Z</time>
      </trkpt>
      <trkpt lat="58.992906" lon="15.99449">
        <ele>68.2727</ele>
        <time>1970-01-01T01:00:00Z</time>
      </trkpt>
      <trkpt lat="58.993001" lon="15.994469">
        <ele>68.5455</ele>
        <time>1970-01-01T01:00:00Z</time>
      </trkpt>
      <trkpt lat="58.993087" lon="15.994411">
        <ele>68.9091</ele>
        <time>1970-01-01T01:00:00Z</time>
      </trkpt>
      <trkpt lat="58.993172" lon="15.994403">
        <ele>69.4545</ele>
        <time>1970-01-01T01:00:00Z</time>
      </trkpt>
      <trkpt lat="58.993258" lon="15.9944">
        <ele>70</ele>
        <time>1970-01-01T01:00:00Z</time>
      </trkpt>
      <trkpt lat="58.993341" lon="15.994421">
        <ele>70.5455</ele>
        <time>1970-01-01T01:00:00Z</time>
      </trkpt>
      <trkpt lat="58.993419" lon="15.994377">
        <ele>71.0909</ele>
        <time>1970-01-01T01:00:00Z</time>
      </trkpt>
      <trkpt lat="58.993513" lon="15.994363">
        <ele>71.6364</ele>
        <time>1970-01-01T01:00:00Z</time>
      </trkpt>
      <trkpt lat="58.993578" lon="15.994463">
        <ele>72.1818</ele>
        <time>1970-01-01T01:00:00Z</time>
      </trkpt>
      <trkpt lat="58.993631" lon="15.994593">
        <ele>72.7273</ele>
        <time>1970-01-01T01:00:00Z</time>
      </trkpt>
      <trkpt lat="58.993669" lon="15.994733">
        <ele>73.1818</ele>
        <time>1970-01-01T01:00:00Z</time>
      </trkpt>
      <trkpt lat="58.993754" lon="15.99477">
        <ele>73.6364</ele>
        <time>1970-01-01T01:00:00Z</time>
      </trkpt>
      <trkpt lat="58.993826" lon="15.994872">
        <ele>74.1818</ele>
        <time>1970-01-01T01:00:00Z</time>
      </trkpt>
      <trkpt lat="58.993886" lon="15.995001">
        <ele>74.7273</ele>
        <time>1970-01-01T01:00:00Z</time>
      </trkpt>
      <trkpt lat="58.993981" lon="15.995026">
        <ele>75.1818</ele>
        <time>1970-01-01T01:00:00Z</time>
      </trkpt>
      <trkpt lat="58.994063" lon="15.995007">
        <ele>75.7273</ele>
        <time>1970-01-01T01:00:00Z</time>
      </trkpt>
      <trkpt lat="58.994142" lon="15.994923">
        <ele>76.2727</ele>
        <time>1970-01-01T01:00:00Z</time>
      </trkpt>
      <trkpt lat="58.994223" lon="15.99485">
        <ele>76.7273</ele>
        <time>1970-01-01T01:00:00Z</time>
      </trkpt>
      <trkpt lat="58.994309" lon="15.994811">
        <ele>77.1818</ele>
        <time>1970-01-01T01:00:00Z</time>
      </trkpt>
      <trkpt lat="58.994394" lon="15.994808">
        <ele>77.6364</ele>
        <time>1970-01-01T01:00:00Z</time>
      </trkpt>
      <trkpt lat="58.994485" lon="15.994783">
        <ele>77.9091</ele>
        <time>1970-01-01T01:00:00Z</time>
      </trkpt>
      <trkpt lat="58.994576" lon="15.994776">
        <ele>78.1818</ele>
        <time>1970-01-01T01:00:00Z</time>
      </trkpt>
      <trkpt lat="58.994663" lon="15.99479">
        <ele>78.3636</ele>
        <time>1970-01-01T01:00:00Z</time>
      </trkpt>
      <trkpt lat="58.994732" lon="15.994872">
        <ele>78.4545</ele>
        <time>1970-01-01T01:00:00Z</time>
      </trkpt>
      <trkpt lat="58.994805" lon="15.994994">
        <ele>78.4545</ele>
        <time>1970-01-01T01:00:00Z</time>
      </trkpt>
      <trkpt lat="58.994862" lon="15.995141">
        <ele>78.4545</ele>
        <time>1970-01-01T01:00:00Z</time>
      </trkpt>
      <trkpt lat="58.994876" lon="15.995311">
        <ele>78.3636</ele>
        <time>1970-01-01T01:00:00Z</time>
      </trkpt>
      <trkpt lat="58.994932" lon="15.995433">
        <ele>78.2727</ele>
        <time>1970-01-01T01:00:00Z</time>
      </trkpt>
      <trkpt lat="58.994962" lon="15.995585">
        <ele>78.1818</ele>
        <time>1970-01-01T01:00:00Z</time>
      </trkpt>
      <trkpt lat="58.995007" lon="15.995747">
        <ele>78</ele>
        <time>1970-01-01T01:00:00Z</time>
      </trkpt>
      <trkpt lat="58.995055" lon="15.995885">
        <ele>77.8182</ele>
        <time>1970-01-01T01:00:00Z</time>
      </trkpt>
      <trkpt lat="58.995111" lon="15.996002">
        <ele>77.7273</ele>
        <time>1970-01-01T01:00:00Z</time>
      </trkpt>
      <trkpt lat="58.99517" lon="15.996137">
        <ele>77.6364</ele>
        <time>1970-01-01T01:00:00Z</time>
      </trkpt>
      <trkpt lat="58.995208" lon="15.996294">
        <ele>77.5455</ele>
        <time>1970-01-01T01:00:00Z</time>
      </trkpt>
      <trkpt lat="58.995275" lon="15.99642">
        <ele>77.3636</ele>
        <time>1970-01-01T01:00:00Z</time>
      </trkpt>
      <trkpt lat="58.995354" lon="15.996512">
        <ele>77.1818</ele>
        <time>1970-01-01T01:00:00Z</time>
      </trkpt>
      <trkpt lat="58.995431" lon="15.996592">
        <ele>76.9091</ele>
        <time>1970-01-01T01:00:00Z</time>
      </trkpt>
      <trkpt lat="58.995508" lon="15.996654">
        <ele>76.5455</ele>
        <time>1970-01-01T01:00:00Z</time>
      </trkpt>
      <trkpt lat="58.995589" lon="15.99673">
        <ele>76.0909</ele>
        <time>1970-01-01T01:00:00Z</time>
      </trkpt>
      <trkpt lat="58.995662" lon="15.996808">
        <ele>75.6364</ele>
        <time>1970-01-01T01:00:00Z</time>
      </trkpt>
      <trkpt lat="58.995747" lon="15.996883">
        <ele>75.1818</ele>
        <time>1970-01-01T01:00:00Z</time>
      </trkpt>
      <trkpt lat="58.99583" lon="15.996927">
        <ele>74.7273</ele>
        <time>1970-01-01T01:00:00Z</time>
      </trkpt>
      <trkpt lat="58.995904" lon="15.997024">
        <ele>74.2727</ele>
        <time>1970-01-01T01:00:00Z</time>
      </trkpt>
      <trkpt lat="58.995972" lon="15.997109">
        <ele>73.9091</ele>
        <time>1970-01-01T01:00:00Z</time>
      </trkpt>
      <trkpt lat="58.996037" lon="15.997219">
        <ele>73.5455</ele>
        <time>1970-01-01T01:00:00Z</time>
      </trkpt>
      <trkpt lat="58.996116" lon="15.997315">
        <ele>73.3636</ele>
        <time>1970-01-01T01:00:00Z</time>
      </trkpt>
      <trkpt lat="58.996193" lon="15.997396">
        <ele>73.2727</ele>
        <time>1970-01-01T01:00:00Z</time>
      </trkpt>
      <trkpt lat="58.996255" lon="15.997528">
        <ele>73.2727</ele>
        <time>1970-01-01T01:00:00Z</time>
      </trkpt>
      <trkpt lat="58.996299" lon="15.997688">
        <ele>73.3636</ele>
        <time>1970-01-01T01:00:00Z</time>
      </trkpt>
      <trkpt lat="58.996344" lon="15.997829">
        <ele>73.5455</ele>
        <time>1970-01-01T01:00:00Z</time>
      </trkpt>
      <trkpt lat="58.996374" lon="15.998007">
        <ele>73.8182</ele>
        <time>1970-01-01T01:00:00Z</time>
      </trkpt>
      <trkpt lat="58.996416" lon="15.998152">
        <ele>74.1818</ele>
        <time>1970-01-01T01:00:00Z</time>
      </trkpt>
      <trkpt lat="58.996492" lon="15.998244">
        <ele>74.6364</ele>
        <time>1970-01-01T01:00:00Z</time>
      </trkpt>
      <trkpt lat="58.99657" lon="15.998326">
        <ele>75.1818</ele>
        <time>1970-01-01T01:00:00Z</time>
      </trkpt>
      <trkpt lat="58.996631" lon="15.998445">
        <ele>75.6364</ele>
        <time>1970-01-01T01:00:00Z</time>
      </trkpt>
      <trkpt lat="58.996683" lon="15.998575">
        <ele>76.1818</ele>
        <time>1970-01-01T01:00:00Z</time>
      </trkpt>
      <trkpt lat="58.996754" lon="15.998679">
        <ele>76.7273</ele>
        <time>1970-01-01T01:00:00Z</time>
      </trkpt>
      <trkpt lat="58.996824" lon="15.998801">
        <ele>77.1818</ele>
        <time>1970-01-01T01:00:00Z</time>
      </trkpt>
      <trkpt lat="58.996899" lon="15.998891">
        <ele>77.7273</ele>
        <time>1970-01-01T01:00:00Z</time>
      </trkpt>
      <trkpt lat="58.99695" lon="15.999015">
        <ele>78.2727</ele>
        <time>1970-01-01T01:00:00Z</time>
      </trkpt>
      <trkpt lat="58.997033" lon="15.999097">
        <ele>78.7273</ele>
        <time>1970-01-01T01:00:00Z</time>
      </trkpt>
      <trkpt lat="58.997125" lon="15.999156">
        <ele>79.0909</ele>
        <time>1970-01-01T01:00:00Z</time>
      </trkpt>
      <trkpt lat="58.997185" lon="15.999289">
        <ele>79.4545</ele>
        <time>1970-01-01T01:00:00Z</time>
      </trkpt>
      <trkpt lat="58.997237" lon="15.999414">
        <ele>79.7273</ele>
        <time>1970-01-01T01:00:00Z</time>
      </trkpt>
      <trkpt lat="58.997313" lon="15.999528">
        <ele>79.8182</ele>
        <time>1970-01-01T01:00:00Z</time>
      </trkpt>
      <trkpt lat="58.997377" lon="15.999653">
        <ele>79.9091</ele>
        <time>1970-01-01T01:00:00Z</time>
      </trkpt>
      <trkpt lat="58.997439" lon="15.999757">
        <ele>79.8182</ele>
        <time>1970-01-01T01:00:00Z</time>
      </trkpt>
      <trkpt lat="58.997509" lon="15.999883">
        <ele>79.6364</ele>
        <time>1970-01-01T01:00:00Z</time>
      </trkpt>
      <trkpt lat="58.99756" lon="16.000025">
        <ele>79.3636</ele>
        <time>1970-01-01T01:00:00Z</time>
      </trkpt>
      <trkpt lat="58.997583" lon="16.000178">
        <ele>79</ele>
        <time>1970-01-01T01:00:00Z</time>
      </trkpt>
      <trkpt lat="58.997653" lon="16.000262">
        <ele>78.5455</ele>
        <time>1970-01-01T01:00:00Z</time>
      </trkpt>
      <trkpt lat="58.997726" lon="16.000361">
        <ele>78.1818</ele>
        <time>1970-01-01T01:00:00Z</time>
      </trkpt>
      <trkpt lat="58.997812" lon="16.00042">
        <ele>77.8182</ele>
        <time>1970-01-01T01:00:00Z</time>
      </trkpt>
      <trkpt lat="58.997868" lon="16.00056">
        <ele>77.3636</ele>
        <time>1970-01-01T01:00:00Z</time>
      </trkpt>
      <trkpt lat="58.997937" lon="16.000661">
        <ele>76.9091</ele>
        <time>1970-01-01T01:00:00Z</time>
      </trkpt>
      <trkpt lat="58.998022" lon="16.000704">
        <ele>76.5455</ele>
        <time>1970-01-01T01:00:00Z</time>
      </trkpt>
      <trkpt lat="58.998103" lon="16.000747">
        <ele>76.1818</ele>
        <time>1970-01-01T01:00:00Z</time>
      </trkpt>
      <trkpt lat="58.998193" lon="16.000768">
        <ele>75.8182</ele>
        <time>1970-01-01T01:00:00Z</time>
      </trkpt>
      <trkpt lat="58.998282" lon="16.000769">
        <ele>75.4545</ele>
        <time>1970-01-01T01:00:00Z</time>
      </trkpt>
      <trkpt lat="58.998362" lon="16.000825">
        <ele>75.1818</ele>
        <time>1970-01-01T01:00:00Z</time>
      </trkpt>
      <trkpt lat="58.998452" lon="16.000896">
        <ele>75</ele>
        <time>1970-01-01T01:00:00Z</time>
      </trkpt>
      <trkpt lat="58.99853" lon="16.000947">
        <ele>74.9091</ele>
        <time>1970-01-01T01:00:00Z</time>
      </trkpt>
      <trkpt lat="58.99861" lon="16.00102">
        <ele>74.8182</ele>
        <time>1970-01-01T01:00:00Z</time>
      </trkpt>
      <trkpt lat="58.998674" lon="16.001118">
        <ele>74.7273</ele>
        <time>1970-01-01T01:00:00Z</time>
      </trkpt>
      <trkpt lat="58.998744" lon="16.001198">
        <ele>74.6364</ele>
        <time>1970-01-01T01:00:00Z</time>
      </trkpt>
      <trkpt lat="58.998813" lon="16.001286">
        <ele>74.5455</ele>
        <time>1970-01-01T01:00:00Z</time>
      </trkpt>
      <trkpt lat="58.998894" lon="16.001344">
        <ele>74.4545</ele>
        <time>1970-01-01T01:00:00Z</time>
      </trkpt>
      <trkpt lat="58.998966" lon="16.001441">
        <ele>74.3636</ele>
        <time>1970-01-01T01:00:00Z</time>
      </trkpt>
      <trkpt lat="58.999048" lon="16.001516">
        <ele>74.3636</ele>
        <time>1970-01-01T01:00:00Z</time>
      </trkpt>
      <trkpt lat="58.999112" lon="16.001642">
        <ele>74.2727</ele>
        <time>1970-01-01T01:00:00Z</time>
      </trkpt>
      <trkpt lat="58.999182" lon="16.001742">
        <ele>74.1818</ele>
        <time>1970-01-01T01:00:00Z</time>
      </trkpt>
      <trkpt lat="58.999262" lon="16.001831">
        <ele>74</ele>
        <time>1970-01-01T01:00:00Z</time>
      </trkpt>
      <trkpt lat="58.999338" lon="16.001897">
        <ele>73.8182</ele>
        <time>1970-01-01T01:00:00Z</time>
      </trkpt>
      <trkpt lat="58.999393" lon="16.002021">
        <ele>73.6364</ele>
        <time>1970-01-01T01:00:00Z</time>
      </trkpt>
      <trkpt lat="58.999434" lon="16.002159">
        <ele>73.4545</ele>
        <time>1970-01-01T01:00:00Z</time>
      </trkpt>
      <trkpt lat="58.999456" lon="16.002324">
        <ele>73.3636</ele>
        <time>1970-01-01T01:00:00Z</time>
      </trkpt>
      <trkpt lat="58.999522" lon="16.00245">
        <ele>73.1818</ele>
        <time>1970-01-01T01:00:00Z</time>
      </trkpt>
      <trkpt lat="58.999563" lon="16.002588">
        <ele>73</ele>
        <time>1970-01-01T01:00:00Z</time>
      </trkpt>
      <trkpt lat="58.99954" lon="16.002753">
        <ele>72.8182</ele>
        <time>1970-01-01T01:00:00Z</time>
      </trkpt>
      <trkpt lat="58.99955" lon="16.00292">
        <ele>72.5455</ele>
        <time>1970-01-01T01:00:00Z</time>
      </trkpt>
      <trkpt lat="58.999576" lon="16.003081">
        <ele>72.3636</ele>
        <time>1970-01-01T01:00:00Z</time>
      </trkpt>
      <trkpt lat="58.999636" lon="16.003219">
        <ele>72.1818</ele>
        <time>1970-01-01T01:00:00Z</time>
      </trkpt>
      <trkpt lat="58.999685" lon="16.003371">
        <ele>71.9091</ele>
        <time>1970-01-01T01:00:00Z</time>
      </trkpt>
      <trkpt lat="58.999731" lon="16.003502">
        <ele>71.7273</ele>
        <time>1970-01-01T01:00:00Z</time>
      </trkpt>
      <trkpt lat="58.999784" lon="16.003635">
        <ele>71.5455</ele>
        <time>1970-01-01T01:00:00Z</time>
      </trkpt>
      <trkpt lat="58.999858" lon="16.003745">
        <ele>71.3636</ele>
        <time>1970-01-01T01:00:00Z</time>
      </trkpt>
      <trkpt lat="58.999919" lon="16.003861">
        <ele>71.1818</ele>
        <time>1970-01-01T01:00:00Z</time>
      </trkpt>
      <trkpt lat="58.999944" lon="16.004011">
        <ele>71.0909</ele>
        <time>1970-01-01T01:00:00Z</time>
      </trkpt>
      <trkpt lat="58.999907" lon="16.004176">
        <ele>70.9091</ele>
        <time>1970-01-01T01:00:00Z</time>
      </trkpt>
      <trkpt lat="58.999853" lon="16.004329">
        <ele>70.7273</ele>
        <time>1970-01-01T01:00:00Z</time>
      </trkpt>
      <trkpt lat="58.999809" lon="16.004469">
        <ele>70.6364</ele>
        <time>1970-01-01T01:00:00Z</time>
      </trkpt>
      <trkpt lat="58.99976" lon="16.004616">
        <ele>70.5455</ele>
        <time>1970-01-01T01:00:00Z</time>
      </trkpt>
      <trkpt lat="58.999714" lon="16.004759">
        <ele>70.3636</ele>
        <time>1970-01-01T01:00:00Z</time>
      </trkpt>
      <trkpt lat="58.999672" lon="16.004914">
        <ele>70.3636</ele>
        <time>1970-01-01T01:00:00Z</time>
      </trkpt>
      <trkpt lat="58.999641" lon="16.005069">
        <ele>70.2727</ele>
        <time>1970-01-01T01:00:00Z</time>
      </trkpt>
      <trkpt lat="58.999609" lon="16.005234">
        <ele>70.0909</ele>
        <time>1970-01-01T01:00:00Z</time>
      </trkpt>
      <trkpt lat="58.999583" lon="16.0054">
        <ele>69.8182</ele>
        <time>1970-01-01T01:00:00Z</time>
      </trkpt>
      <trkpt lat="58.99955" lon="16.005572">
        <ele>69.4545</ele>
        <time>1970-01-01T01:00:00Z</time>
      </trkpt>
      <trkpt lat="58.999509" lon="16.005719">
        <ele>69</ele>
        <time>1970-01-01T01:00:00Z</time>
      </trkpt>
      <trkpt lat="58.999488" lon="16.005888">
        <ele>68.5455</ele>
        <time>1970-01-01T01:00:00Z</time>
      </trkpt>
      <trkpt lat="58.999532" lon="16.00604">
        <ele>68.0909</ele>
        <time>1970-01-01T01:00:00Z</time>
      </trkpt>
      <trkpt lat="58.999605" lon="16.006153">
        <ele>67.6364</ele>
        <time>1970-01-01T01:00:00Z</time>
      </trkpt>
      <trkpt lat="58.999679" lon="16.006231">
        <ele>67.0909</ele>
        <time>1970-01-01T01:00:00Z</time>
      </trkpt>
      <trkpt lat="58.999753" lon="16.006311">
        <ele>66.6364</ele>
        <time>1970-01-01T01:00:00Z</time>
      </trkpt>
      <trkpt lat="58.999823" lon="16.006408">
        <ele>66.3</ele>
        <time>1970-01-01T01:00:00Z</time>
      </trkpt>
      <trkpt lat="58.9999" lon="16.006467">
        <ele>65.8889</ele>
        <time>1970-01-01T01:00:00Z</time>
      </trkpt>
      <trkpt lat="58.999949" lon="16.006598">
        <ele>65.5</ele>
        <time>1970-01-01T01:00:00Z</time>
      </trkpt>
      <trkpt lat="59.000032" lon="16.006587">
        <ele>64.8333</ele>
        <time>1970-01-01T01:00:00Z</time>
      </trkpt>
    </trkseg>
  </trk>
</gpx>